QFA6042 EDHI-VOBL

Flight info

Callsign QFA6042
Flight time 9h 37m
Altitude 35000
Route AMLUH M852 DENIX DCT ZUCKA DCT GALMA Z21 OMELO DCT VLM DCT BNO DCT ODNEM DCT ERGOM DCT BUDOP DCT DINRO DCT UDROS/N0441F370 DCT CRM UM11 REBLO M11 LUSAL N701 LARGI B701 KRS A240 INRAK B449 KEMOR/N0445F390 B449 RANAH L750 ZB G202 RK P628 VIKIT Z9 UUD L518 HIA Q21 LURGI/N0452F380 Q21 TELUV
Aircraft A21N/M-SADE2E3GHIJ3J4J5LM1ORWYZ/LB1D1

Departure

Time 2026-04-26 15:13
Airport Hamburg-Finkenwerder Airport (EDHI)

Arrival

Time 2026-04-27 00:50
Airport Kempegowda International Airport Bengaluru (VOBL)
Time Latitude Longitude Altitude Speed Heading
2026-04-26 14:13 53.53069 9.83718 29 ft 0 kts 204°
2026-04-26 15:00 53.53078 9.83724 29 ft 4 kts 208°
2026-04-26 15:00 53.53094 9.83749 29 ft 4 kts 263°
2026-04-26 15:00 53.53093 9.83766 29 ft 2 kts 297°
2026-04-26 15:01 53.53096 9.83758 29 ft 1 kts 293°
2026-04-26 15:06 53.53103 9.83731 29 ft 5 kts 293°
2026-04-26 15:07 53.53163 9.83516 29 ft 15 kts 295°
2026-04-26 15:07 53.53202 9.83399 29 ft 11 kts 326°
2026-04-26 15:07 53.53268 9.83414 29 ft 10 kts 22°
2026-04-26 15:08 53.53318 9.83414 29 ft 0 kts 348°
2026-04-26 15:08 53.53324 9.83412 29 ft 3 kts 348°
2026-04-26 15:08 53.53361 9.83399 29 ft 8 kts 348°
2026-04-26 15:08 53.53432 9.83376 29 ft 13 kts 359°
2026-04-26 15:09 53.53506 9.83491 28 ft 18 kts 53°
2026-04-26 15:09 53.53591 9.83677 27 ft 22 kts 52°
2026-04-26 15:09 53.53696 9.83897 27 ft 26 kts 51°
2026-04-26 15:09 53.53822 9.84157 29 ft 31 kts 51°
2026-04-26 15:10 53.53943 9.84415 28 ft 21 kts 53°
2026-04-26 15:10 53.54007 9.84556 28 ft 24 kts 52°
2026-04-26 15:10 53.54160 9.84883 28 ft 23 kts 51°
2026-04-26 15:10 53.54256 9.84979 29 ft 16 kts 16°
2026-04-26 15:11 53.54329 9.85123 30 ft 12 kts 84°
2026-04-26 15:11 53.54291 9.85177 31 ft 9 kts 208°
2026-04-26 15:11 53.54257 9.85087 30 ft 7 kts 233°
2026-04-26 15:11 53.54252 9.85074 30 ft 2 kts 232°
2026-04-26 15:12 53.54233 9.85036 30 ft 7 kts 232°
2026-04-26 15:12 53.54060 9.84664 27 ft 81 kts 232°
2026-04-26 15:12 53.53561 9.83593 27 ft 148 kts 232°
2026-04-26 15:12 53.52851 9.82104 412 ft 165 kts 232°
2026-04-26 15:13 53.52135 9.80625 1137 ft 163 kts 232°
2026-04-26 15:13 53.51399 9.79157 1847 ft 167 kts 233°
2026-04-26 15:13 53.50644 9.77540 2438 ft 185 kts 233°
2026-04-26 15:13 53.49816 9.75765 3054 ft 201 kts 233°
2026-04-26 15:14 53.48916 9.73844 3695 ft 217 kts 231°
2026-04-26 15:14 53.47690 9.72266 4421 ft 229 kts 202°
2026-04-26 15:14 53.46112 9.71857 5366 ft 234 kts 176°
2026-04-26 15:14 53.44544 9.72637 6340 ft 238 kts 158°
2026-04-26 15:15 53.43032 9.73835 7268 ft 243 kts 157°
2026-04-26 15:15 53.41521 9.75172 8139 ft 249 kts 147°
2026-04-26 15:15 53.40349 9.77340 8931 ft 259 kts 118°
2026-04-26 15:15 53.39914 9.80358 9379 ft 280 kts 88°
2026-04-26 15:16 53.40115 9.83704 9912 ft 295 kts 81°
2026-04-26 15:16 53.40397 9.87160 10607 ft 306 kts 81°
2026-04-26 15:16 53.40663 9.90818 10989 ft 328 kts 81°
2026-04-26 15:16 53.40914 9.94747 11315 ft 350 kts 82°
2026-04-26 15:17 53.41159 9.98943 11639 ft 372 kts 82°
2026-04-26 15:17 53.41320 10.01892 12001 ft 380 kts 82°
2026-04-26 15:17 53.41632 10.07797 13010 ft 386 kts 82°
2026-04-26 15:17 53.41869 10.12308 13779 ft 391 kts 82°
2026-04-26 15:18 53.42104 10.16877 14523 ft 396 kts 83°
2026-04-26 15:18 53.42052 10.21534 15210 ft 405 kts 95°
2026-04-26 15:18 53.41305 10.26138 15875 ft 413 kts 112°
2026-04-26 15:18 53.39820 10.30275 16545 ft 419 kts 129°
2026-04-26 15:19 53.37698 10.33626 17197 ft 421 kts 146°
2026-04-26 15:19 53.35111 10.35911 17826 ft 422 kts 163°
2026-04-26 15:19 53.32286 10.37263 18479 ft 423 kts 169°
2026-04-26 15:19 53.29413 10.38447 19109 ft 427 kts 169°
2026-04-26 15:20 53.26526 10.39663 19758 ft 430 kts 169°
2026-04-26 15:20 53.23622 10.40926 20390 ft 433 kts 168°
2026-04-26 15:20 53.20706 10.42220 20995 ft 436 kts 168°
2026-04-26 15:20 53.17764 10.43536 21577 ft 439 kts 168°
2026-04-26 15:21 53.14808 10.44859 22141 ft 442 kts 168°
2026-04-26 15:21 53.11819 10.46057 22682 ft 443 kts 172°
2026-04-26 15:21 53.08787 10.47022 23210 ft 445 kts 173°
2026-04-26 15:21 53.05730 10.47968 23736 ft 448 kts 173°
2026-04-26 15:22 53.02656 10.48916 24235 ft 451 kts 173°
2026-04-26 15:22 52.99563 10.49872 24740 ft 453 kts 173°
2026-04-26 15:22 52.96452 10.50838 25216 ft 456 kts 173°
2026-04-26 15:22 52.93328 10.51809 25673 ft 459 kts 173°
2026-04-26 15:23 52.90176 10.52783 26111 ft 462 kts 173°
2026-04-26 15:23 52.87003 10.53762 26544 ft 465 kts 173°
2026-04-26 15:23 52.83813 10.54746 26970 ft 468 kts 173°
2026-04-26 15:23 52.80606 10.55733 27380 ft 470 kts 173°
2026-04-26 15:24 52.77383 10.56723 27771 ft 473 kts 173°
2026-04-26 15:24 52.74137 10.57721 28153 ft 475 kts 173°
2026-04-26 15:24 52.70893 10.58716 28645 ft 474 kts 173°
2026-04-26 15:24 52.67651 10.59709 29118 ft 473 kts 173°
2026-04-26 15:25 52.64411 10.60699 29559 ft 473 kts 173°
2026-04-26 15:25 52.62234 10.61363 29856 ft 472 kts 173°
2026-04-26 15:25 52.57961 10.62652 30413 ft 471 kts 174°
2026-04-26 15:25 52.54741 10.63623 30849 ft 470 kts 174°
2026-04-26 15:26 52.51525 10.64599 31270 ft 468 kts 174°
2026-04-26 15:26 52.48324 10.65570 31666 ft 467 kts 173°
2026-04-26 15:26 52.45130 10.66538 32075 ft 466 kts 173°
2026-04-26 15:26 52.41948 10.67504 32466 ft 465 kts 173°
2026-04-26 15:27 52.38735 10.68473 32829 ft 463 kts 173°
2026-04-26 15:27 52.35567 10.69429 33200 ft 462 kts 173°
2026-04-26 15:27 52.32448 10.70367 33536 ft 461 kts 173°
2026-04-26 15:27 52.29303 10.71314 33842 ft 460 kts 174°
2026-04-26 15:28 52.26117 10.72271 34163 ft 459 kts 174°
2026-04-26 15:28 52.23021 10.73198 34443 ft 458 kts 174°
2026-04-26 15:28 52.19882 10.74137 34723 ft 458 kts 174°
2026-04-26 15:28 52.16753 10.75071 34983 ft 458 kts 174°
2026-04-26 15:29 52.13616 10.76005 35218 ft 458 kts 174°
2026-04-26 15:29 52.10482 10.76939 35345 ft 458 kts 173°
2026-04-26 15:30 51.97987 10.80661 35323 ft 456 kts 173°
2026-04-26 15:30 51.91760 10.82502 35320 ft 454 kts 173°
2026-04-26 15:31 51.82433 10.85253 35322 ft 454 kts 174°
2026-04-26 15:32 51.75169 10.87382 35322 ft 454 kts 174°
2026-04-26 15:32 51.70060 10.89444 35319 ft 460 kts 162°
2026-04-26 15:32 51.67205 10.91810 35319 ft 465 kts 149°
2026-04-26 15:33 51.64685 10.95112 35320 ft 470 kts 137°
2026-04-26 15:33 51.62554 10.99118 35326 ft 472 kts 130°
2026-04-26 15:33 51.58530 11.07482 35324 ft 473 kts 130°
2026-04-26 15:34 51.54427 11.15833 35320 ft 473 kts 130°
2026-04-26 15:34 51.50347 11.24028 35321 ft 473 kts 131°
2026-04-26 15:35 51.46204 11.32326 35323 ft 473 kts 131°
2026-04-26 15:35 51.42242 11.40745 35318 ft 476 kts 122°
2026-04-26 15:36 51.40293 11.48975 35319 ft 479 kts 100°
2026-04-26 15:36 51.40023 11.54269 35322 ft 478 kts 88°
2026-04-26 15:36 51.40187 11.59591 35325 ft 478 kts 85°
2026-04-26 15:37 51.40605 11.70231 35322 ft 479 kts 85°
2026-04-26 15:37 51.40954 11.80868 35319 ft 479 kts 86°
2026-04-26 15:38 51.41270 11.91530 35320 ft 479 kts 86°
2026-04-26 15:38 51.41581 12.02202 35320 ft 480 kts 86°
2026-04-26 15:39 51.41887 12.12892 35318 ft 481 kts 86°
2026-04-26 15:39 51.42136 12.21781 35320 ft 481 kts 86°
2026-04-26 15:40 51.42469 12.34318 35320 ft 482 kts 86°
2026-04-26 15:40 51.42745 12.44963 35318 ft 481 kts 86°
2026-04-26 15:41 51.42133 12.55598 35316 ft 483 kts 107°
2026-04-26 15:41 51.40854 12.60548 35320 ft 481 kts 120°
2026-04-26 15:41 51.39118 12.65122 35326 ft 480 kts 124°
2026-04-26 15:42 51.35503 12.74104 35322 ft 480 kts 124°
2026-04-26 15:42 51.31937 12.83156 35320 ft 481 kts 124°
2026-04-26 15:43 51.28392 12.92211 35320 ft 481 kts 123°
2026-04-26 15:44 51.23069 13.05799 35321 ft 482 kts 124°
2026-04-26 15:44 51.17722 13.19358 35321 ft 482 kts 124°
2026-04-26 15:45 51.12347 13.32920 35322 ft 483 kts 124°
2026-04-26 15:46 51.06949 13.46427 35319 ft 483 kts 124°
2026-04-26 15:46 51.03926 13.53965 35320 ft 483 kts 124°
2026-04-26 15:47 50.97951 13.68926 35321 ft 483 kts 124°
2026-04-26 15:48 50.94371 13.77935 35324 ft 482 kts 124°
2026-04-26 15:48 50.90470 13.86524 35323 ft 480 kts 130°
2026-04-26 15:49 50.86360 13.94852 35312 ft 480 kts 130°
2026-04-26 15:49 50.81666 14.02172 35308 ft 471 kts 149°
2026-04-26 15:50 50.76087 14.07589 35310 ft 471 kts 153°
2026-04-26 15:50 50.70460 14.12925 35307 ft 471 kts 153°
2026-04-26 15:51 50.64855 14.18297 35300 ft 471 kts 152°
2026-04-26 15:51 50.59260 14.23642 35303 ft 470 kts 153°
2026-04-26 15:52 50.53667 14.28963 35300 ft 469 kts 152°
2026-04-26 15:52 50.48085 14.34288 35297 ft 469 kts 153°
2026-04-26 15:53 50.42501 14.39592 35290 ft 469 kts 153°
2026-04-26 15:53 50.36911 14.44882 35288 ft 469 kts 153°
2026-04-26 15:54 50.31319 14.50152 35289 ft 469 kts 153°
2026-04-26 15:54 50.25726 14.55414 35288 ft 469 kts 153°
2026-04-26 15:55 50.20131 14.60668 35287 ft 469 kts 153°
2026-04-26 15:55 50.14532 14.65906 35290 ft 469 kts 153°
2026-04-26 15:56 50.08919 14.71139 35290 ft 470 kts 153°
2026-04-26 15:56 50.03301 14.76368 35291 ft 471 kts 153°
2026-04-26 15:57 49.97676 14.81591 35289 ft 471 kts 153°
2026-04-26 15:57 49.92069 14.86776 35289 ft 468 kts 153°
2026-04-26 15:58 49.86472 14.91939 35293 ft 468 kts 153°
2026-04-26 15:58 49.80866 14.97098 35289 ft 469 kts 153°
2026-04-26 15:59 49.75256 15.02249 35292 ft 469 kts 153°
2026-04-26 15:59 49.70147 15.08587 35286 ft 478 kts 132°
2026-04-26 15:59 49.68276 15.12845 35281 ft 482 kts 120°
2026-04-26 16:00 49.66745 15.17452 35286 ft 482 kts 117°
2026-04-26 16:00 49.63762 15.26719 35283 ft 483 kts 118°
2026-04-26 16:01 49.60700 15.35957 35279 ft 483 kts 118°
2026-04-26 16:01 49.57613 15.45174 35274 ft 484 kts 118°
2026-04-26 16:02 49.54521 15.54389 35277 ft 485 kts 118°
2026-04-26 16:02 49.51410 15.63613 35279 ft 486 kts 118°
2026-04-26 16:03 49.48297 15.72821 35275 ft 486 kts 118°
2026-04-26 16:03 49.45170 15.82032 35267 ft 486 kts 118°
2026-04-26 16:04 49.42042 15.91220 35262 ft 486 kts 118°
2026-04-26 16:04 49.38923 16.00347 35261 ft 486 kts 118°
2026-04-26 16:05 49.35751 16.09592 35268 ft 487 kts 118°
2026-04-26 16:05 49.32605 16.18726 35263 ft 488 kts 118°
2026-04-26 16:06 49.29414 16.27960 35262 ft 488 kts 118°
2026-04-26 16:06 49.26248 16.37082 35256 ft 487 kts 119°
2026-04-26 16:07 49.23057 16.46230 35269 ft 488 kts 118°
2026-04-26 16:07 49.19867 16.55379 35262 ft 487 kts 119°
2026-04-26 16:08 49.16661 16.64513 35253 ft 487 kts 119°
2026-04-26 16:08 49.12780 16.72934 35263 ft 484 kts 135°
2026-04-26 16:09 49.08123 16.80358 35269 ft 484 kts 136°
2026-04-26 16:09 49.03460 16.87772 35255 ft 484 kts 136°
2026-04-26 16:10 48.98814 16.95207 35248 ft 484 kts 135°
2026-04-26 16:10 48.94166 17.02640 35247 ft 485 kts 135°
2026-04-26 16:11 48.89511 17.10066 35242 ft 485 kts 136°
2026-04-26 16:11 48.84839 17.17465 35240 ft 486 kts 136°
2026-04-26 16:12 48.80104 17.24769 35239 ft 486 kts 136°
2026-04-26 16:12 48.72996 17.35734 35230 ft 486 kts 136°
2026-04-26 16:13 48.68248 17.43005 35232 ft 486 kts 136°
2026-04-26 16:13 48.64180 17.51185 35232 ft 488 kts 124°
2026-04-26 16:14 48.60396 17.59704 35229 ft 487 kts 125°
2026-04-26 16:15 48.54625 17.72343 35230 ft 487 kts 126°
2026-04-26 16:15 48.50759 17.80741 35231 ft 487 kts 126°
2026-04-26 16:16 48.44953 17.93302 35229 ft 486 kts 126°
2026-04-26 16:16 48.41704 18.00296 35231 ft 486 kts 126°
2026-04-26 16:17 48.37189 18.09988 35231 ft 487 kts 126°
2026-04-26 16:17 48.33931 18.16980 35229 ft 487 kts 126°
2026-04-26 16:18 48.28107 18.29419 35231 ft 487 kts 126°
2026-04-26 16:19 48.22241 18.41904 35231 ft 489 kts 126°
2026-04-26 16:20 48.16319 18.54425 35223 ft 489 kts 126°
2026-04-26 16:20 48.10390 18.66906 35220 ft 491 kts 126°
2026-04-26 16:21 48.06451 18.75181 35211 ft 492 kts 126°
2026-04-26 16:21 48.02468 18.83514 35204 ft 493 kts 126°
2026-04-26 16:22 47.98441 18.91910 35197 ft 494 kts 126°
2026-04-26 16:22 47.94491 19.00128 35199 ft 488 kts 127°
2026-04-26 16:23 47.90523 19.08353 35195 ft 489 kts 127°
2026-04-26 16:23 47.86535 19.16583 35193 ft 490 kts 127°
2026-04-26 16:24 47.82516 19.24864 35189 ft 491 kts 127°
2026-04-26 16:24 47.78505 19.33112 35181 ft 492 kts 127°
2026-04-26 16:25 47.74518 19.41301 35175 ft 493 kts 127°
2026-04-26 16:25 47.70476 19.49553 35170 ft 494 kts 127°
2026-04-26 16:26 47.66400 19.57860 35170 ft 495 kts 127°
2026-04-26 16:26 47.62353 19.66040 35170 ft 496 kts 127°
2026-04-26 16:27 47.58282 19.74287 35170 ft 496 kts 127°
2026-04-26 16:27 47.54216 19.82542 35168 ft 496 kts 127°
2026-04-26 16:28 47.50128 19.90775 35161 ft 496 kts 127°
2026-04-26 16:28 47.46037 19.98990 35160 ft 496 kts 127°
2026-04-26 16:29 47.41940 20.07196 35152 ft 497 kts 127°
2026-04-26 16:29 47.37821 20.15400 35151 ft 498 kts 127°
2026-04-26 16:30 47.33697 20.23598 35150 ft 497 kts 127°
2026-04-26 16:30 47.29568 20.31749 35143 ft 497 kts 127°
2026-04-26 16:31 47.25443 20.39896 35142 ft 495 kts 127°
2026-04-26 16:31 47.21320 20.48031 35140 ft 495 kts 127°
2026-04-26 16:32 47.17865 20.54813 35144 ft 495 kts 127°
2026-04-26 16:32 47.13078 20.64226 35141 ft 495 kts 128°
2026-04-26 16:33 47.08943 20.72304 35141 ft 494 kts 127°
2026-04-26 16:33 47.04817 20.80357 35137 ft 494 kts 128°
2026-04-26 16:34 47.00679 20.88395 35143 ft 494 kts 128°
2026-04-26 16:34 46.96534 20.96425 35140 ft 494 kts 128°
2026-04-26 16:35 46.92382 21.04437 35146 ft 494 kts 128°
2026-04-26 16:35 46.88222 21.12419 35133 ft 494 kts 128°
2026-04-26 16:36 46.84062 21.20422 35126 ft 494 kts 128°
2026-04-26 16:36 46.79898 21.28407 35141 ft 494 kts 128°
2026-04-26 16:37 46.75731 21.36348 35145 ft 492 kts 128°
2026-04-26 16:37 46.71566 21.44280 35137 ft 492 kts 128°
2026-04-26 16:38 46.67695 21.52478 35138 ft 492 kts 117°
2026-04-26 16:38 46.64539 21.61319 35141 ft 492 kts 117°
2026-04-26 16:39 46.61391 21.70150 35142 ft 491 kts 117°
2026-04-26 16:39 46.58223 21.78943 35138 ft 491 kts 117°
2026-04-26 16:40 46.55056 21.87728 35138 ft 490 kts 117°
2026-04-26 16:40 46.51882 21.96482 35136 ft 490 kts 117°
2026-04-26 16:41 46.48705 22.05224 35139 ft 490 kts 117°
2026-04-26 16:41 46.45514 22.13975 35137 ft 491 kts 117°
2026-04-26 16:42 46.42318 22.22716 35138 ft 491 kts 117°
2026-04-26 16:42 46.39115 22.31455 35127 ft 491 kts 117°
2026-04-26 16:43 46.35897 22.40182 35133 ft 491 kts 117°
2026-04-26 16:43 46.32671 22.48913 35133 ft 492 kts 118°
2026-04-26 16:44 46.29437 22.57633 35131 ft 493 kts 118°
2026-04-26 16:44 46.26191 22.66369 35133 ft 493 kts 118°
2026-04-26 16:45 46.22931 22.75106 35130 ft 494 kts 118°
2026-04-26 16:45 46.19661 22.83833 35132 ft 495 kts 118°
2026-04-26 16:46 46.16375 22.92571 35124 ft 495 kts 118°
2026-04-26 16:46 46.13088 23.01309 35120 ft 496 kts 118°
2026-04-26 16:47 46.09787 23.10041 35120 ft 496 kts 118°
2026-04-26 16:47 46.06495 23.18771 35117 ft 496 kts 118°
2026-04-26 16:48 46.03175 23.27476 35111 ft 496 kts 118°
2026-04-26 16:48 45.99849 23.36187 35111 ft 495 kts 118°
2026-04-26 16:49 45.96537 23.44838 35107 ft 490 kts 119°
2026-04-26 16:49 45.93249 23.53397 35102 ft 489 kts 119°
2026-04-26 16:50 45.89952 23.61952 35102 ft 490 kts 119°
2026-04-26 16:50 45.86648 23.70501 35095 ft 490 kts 119°
2026-04-26 16:51 45.83331 23.79057 35091 ft 491 kts 119°
2026-04-26 16:51 45.80003 23.87615 35079 ft 491 kts 119°
2026-04-26 16:52 45.77772 23.93335 35082 ft 491 kts 119°
2026-04-26 16:52 45.73321 24.04693 35084 ft 491 kts 120°
2026-04-26 16:53 45.69827 24.13102 35017 ft 493 kts 118°
2026-04-26 16:53 45.68209 24.17445 34747 ft 498 kts 118°
2026-04-26 16:53 45.66590 24.21798 34732 ft 493 kts 117°
2026-04-26 16:54 45.64967 24.26111 34915 ft 491 kts 119°
2026-04-26 16:54 45.63280 24.30348 35062 ft 491 kts 120°
2026-04-26 16:54 45.59882 24.38805 35108 ft 490 kts 120°
2026-04-26 16:55 45.56518 24.47251 35080 ft 489 kts 120°
2026-04-26 16:55 45.53155 24.55691 35072 ft 489 kts 120°
2026-04-26 16:56 45.48103 24.68314 35061 ft 488 kts 120°
2026-04-26 16:57 45.45303 24.75289 35058 ft 488 kts 120°
2026-04-26 16:57 45.40237 24.87845 35048 ft 487 kts 120°
2026-04-26 16:58 45.37432 24.94793 35050 ft 487 kts 120°
2026-04-26 16:59 45.31779 25.08728 35043 ft 487 kts 120°
2026-04-26 17:00 45.24992 25.25358 35038 ft 487 kts 120°
2026-04-26 17:00 45.19878 25.37821 35031 ft 487 kts 120°
2026-04-26 17:01 45.16466 25.46109 35030 ft 487 kts 120°
2026-04-26 17:01 45.13049 25.54383 35026 ft 486 kts 120°
2026-04-26 17:02 45.09627 25.62643 35017 ft 487 kts 120°
2026-04-26 17:02 45.06198 25.70898 35019 ft 486 kts 120°
2026-04-26 17:03 45.04475 25.75035 35221 ft 487 kts 120°
2026-04-26 17:03 45.02760 25.79149 35521 ft 486 kts 120°
2026-04-26 17:03 45.01041 25.83268 35815 ft 486 kts 120°
2026-04-26 17:03 44.99328 25.87362 36112 ft 484 kts 120°
2026-04-26 17:04 44.97613 25.91457 36356 ft 484 kts 121°
2026-04-26 17:04 44.95898 25.95546 36567 ft 484 kts 121°
2026-04-26 17:04 44.94210 25.99651 36817 ft 483 kts 118°
2026-04-26 17:04 44.92593 26.03808 36995 ft 484 kts 120°
2026-04-26 17:05 44.89272 26.12022 37005 ft 482 kts 123°
2026-04-26 17:05 44.85648 26.19951 36983 ft 479 kts 122°
2026-04-26 17:06 44.82207 26.27958 36979 ft 477 kts 121°
2026-04-26 17:06 44.78812 26.35963 36971 ft 474 kts 121°
2026-04-26 17:07 44.75422 26.43917 36969 ft 474 kts 121°
2026-04-26 17:07 44.72031 26.51850 36971 ft 474 kts 121°
2026-04-26 17:08 44.68628 26.59785 36971 ft 474 kts 121°
2026-04-26 17:08 44.65224 26.67705 36970 ft 474 kts 121°
2026-04-26 17:09 44.62385 26.74291 36978 ft 474 kts 121°
2026-04-26 17:09 44.58377 26.83540 36979 ft 475 kts 122°
2026-04-26 17:10 44.54576 26.91092 36979 ft 474 kts 125°
2026-04-26 17:10 44.50977 26.98841 36977 ft 474 kts 122°
2026-04-26 17:11 44.48096 27.07121 36967 ft 474 kts 113°
2026-04-26 17:11 44.44937 27.15231 36973 ft 474 kts 121°
2026-04-26 17:12 44.39799 27.27066 36969 ft 474 kts 122°
2026-04-26 17:13 44.34643 27.38860 36964 ft 473 kts 122°
2026-04-26 17:14 44.29491 27.50629 36959 ft 473 kts 122°
2026-04-26 17:14 44.24312 27.62324 36970 ft 472 kts 123°
2026-04-26 17:15 44.18922 27.73768 36970 ft 470 kts 124°
2026-04-26 17:16 44.15319 27.81368 36969 ft 469 kts 124°
2026-04-26 17:16 44.11721 27.88950 36968 ft 469 kts 124°
2026-04-26 17:17 44.08130 27.96512 36970 ft 468 kts 124°
2026-04-26 17:17 44.04537 28.04072 36968 ft 468 kts 124°
2026-04-26 17:18 44.01015 28.11682 36967 ft 469 kts 119°
2026-04-26 17:18 43.97926 28.19651 36969 ft 469 kts 120°
2026-04-26 17:19 43.92804 28.31205 36969 ft 468 kts 123°
2026-04-26 17:19 43.89313 28.38834 36970 ft 469 kts 123°
2026-04-26 17:20 43.86417 28.45164 36970 ft 468 kts 123°
2026-04-26 17:20 43.82211 28.53952 36969 ft 469 kts 123°
2026-04-26 17:21 43.78817 28.61654 36971 ft 469 kts 121°
2026-04-26 17:21 43.75558 28.69469 36972 ft 469 kts 121°
2026-04-26 17:22 43.72112 28.77121 36967 ft 468 kts 123°
2026-04-26 17:22 43.68488 28.84598 36961 ft 468 kts 127°
2026-04-26 17:23 43.64677 28.91887 36960 ft 467 kts 127°
2026-04-26 17:23 43.60672 28.98930 36957 ft 467 kts 129°
2026-04-26 17:24 43.56762 29.06084 36951 ft 467 kts 127°
2026-04-26 17:24 43.52942 29.13327 36950 ft 467 kts 127°
2026-04-26 17:25 43.49124 29.20567 36951 ft 467 kts 127°
2026-04-26 17:25 43.45301 29.27793 36950 ft 467 kts 127°
2026-04-26 17:26 43.41470 29.35013 36950 ft 467 kts 127°
2026-04-26 17:26 43.37637 29.42219 36949 ft 467 kts 127°
2026-04-26 17:27 43.33803 29.49412 36950 ft 467 kts 127°
2026-04-26 17:27 43.29959 29.56602 36950 ft 467 kts 127°
2026-04-26 17:28 43.26118 29.63772 36950 ft 467 kts 128°
2026-04-26 17:28 43.22266 29.70945 36950 ft 467 kts 128°
2026-04-26 17:29 43.19063 29.76894 36952 ft 466 kts 128°
2026-04-26 17:29 43.14560 29.85237 36967 ft 466 kts 128°
2026-04-26 17:30 43.10701 29.92369 36969 ft 466 kts 128°
2026-04-26 17:30 43.06838 29.99490 36968 ft 466 kts 128°
2026-04-26 17:31 43.02972 30.06601 36962 ft 465 kts 128°
2026-04-26 17:31 42.99112 30.13683 36960 ft 464 kts 128°
2026-04-26 17:32 42.95254 30.20744 36961 ft 464 kts 128°
2026-04-26 17:32 42.91413 30.27755 36961 ft 464 kts 128°
2026-04-26 17:33 42.87520 30.34847 36969 ft 464 kts 128°
2026-04-26 17:34 42.81713 30.45396 36969 ft 463 kts 128°
2026-04-26 17:34 42.77865 30.52361 36968 ft 463 kts 128°
2026-04-26 17:35 42.74153 30.59598 36966 ft 464 kts 118°
2026-04-26 17:35 42.71995 30.67803 36975 ft 465 kts 106°
2026-04-26 17:36 42.70199 30.76306 36969 ft 465 kts 106°
2026-04-26 17:36 42.68385 30.84671 36970 ft 464 kts 107°
2026-04-26 17:37 42.66540 30.93072 36972 ft 464 kts 107°
2026-04-26 17:37 42.64690 31.01467 36971 ft 464 kts 107°
2026-04-26 17:38 42.61696 31.13948 36970 ft 463 kts 110°
2026-04-26 17:38 42.59609 31.22214 36968 ft 463 kts 108°
2026-04-26 17:39 42.57717 31.30566 36962 ft 463 kts 107°
2026-04-26 17:39 42.56154 31.37561 36960 ft 462 kts 107°
2026-04-26 17:40 42.54595 31.44496 36960 ft 462 kts 107°
2026-04-26 17:40 42.52400 31.54220 36959 ft 461 kts 107°
2026-04-26 17:41 42.50823 31.62639 36960 ft 461 kts 104°
2026-04-26 17:41 42.49091 31.70934 36959 ft 460 kts 107°
2026-04-26 17:42 42.47195 31.79271 36960 ft 460 kts 107°
2026-04-26 17:42 42.45298 31.87530 36967 ft 459 kts 108°
2026-04-26 17:43 42.43397 31.95788 36970 ft 459 kts 107°
2026-04-26 17:43 42.41506 32.03984 36970 ft 459 kts 108°
2026-04-26 17:44 42.39585 32.12273 36971 ft 458 kts 108°
2026-04-26 17:44 42.37673 32.20497 36969 ft 458 kts 108°
2026-04-26 17:45 42.35755 32.28708 36970 ft 459 kts 108°
2026-04-26 17:45 42.33841 32.36876 36969 ft 459 kts 108°
2026-04-26 17:46 42.31893 32.45157 36971 ft 459 kts 108°
2026-04-26 17:46 42.29967 32.53315 36974 ft 459 kts 108°
2026-04-26 17:47 42.28334 32.60203 36970 ft 459 kts 108°
2026-04-26 17:47 42.26066 32.69744 36980 ft 459 kts 108°
2026-04-26 17:48 42.24105 32.77960 36981 ft 460 kts 108°
2026-04-26 17:48 42.22139 32.86171 36981 ft 460 kts 108°
2026-04-26 17:49 42.20163 32.94389 36981 ft 460 kts 108°
2026-04-26 17:49 42.18188 33.02575 36979 ft 459 kts 108°
2026-04-26 17:50 42.16431 33.10843 36979 ft 460 kts 103°
2026-04-26 17:50 42.14843 33.19173 36980 ft 458 kts 107°
2026-04-26 17:51 42.12911 33.27349 36984 ft 458 kts 109°
2026-04-26 17:51 42.10909 33.35504 36981 ft 458 kts 109°
2026-04-26 17:52 42.08910 33.43637 36979 ft 457 kts 109°
2026-04-26 17:52 42.06909 33.51763 36986 ft 457 kts 109°
2026-04-26 17:53 42.04904 33.59863 36990 ft 456 kts 109°
2026-04-26 17:54 42.01061 33.71537 36990 ft 455 kts 110°
2026-04-26 17:54 41.99261 33.79706 36991 ft 456 kts 102°
2026-04-26 17:55 41.97792 33.87978 36982 ft 455 kts 106°
2026-04-26 17:55 41.95565 33.95917 36982 ft 454 kts 114°
2026-04-26 17:56 41.93223 34.03796 36982 ft 454 kts 110°
2026-04-26 17:57 41.89121 34.19851 36978 ft 454 kts 109°
2026-04-26 17:57 41.87080 34.27882 36979 ft 455 kts 109°
2026-04-26 17:58 41.82978 34.43929 36977 ft 455 kts 109°
2026-04-26 17:59 41.79895 34.55909 36969 ft 453 kts 110°
2026-04-26 17:59 41.77833 34.63890 36971 ft 452 kts 110°
2026-04-26 18:00 41.75771 34.71848 36966 ft 452 kts 110°
2026-04-26 18:00 41.73702 34.79807 36961 ft 453 kts 110°
2026-04-26 18:01 41.71628 34.87754 36960 ft 452 kts 110°
2026-04-26 18:01 41.69549 34.95696 36952 ft 452 kts 110°
2026-04-26 18:02 41.67819 35.02281 36949 ft 451 kts 110°
2026-04-26 18:02 41.65386 35.11519 36944 ft 450 kts 110°
2026-04-26 18:03 41.63303 35.19403 36940 ft 450 kts 110°
2026-04-26 18:03 41.61210 35.27296 36939 ft 451 kts 111°
2026-04-26 18:04 41.59112 35.35179 36931 ft 450 kts 111°
2026-04-26 18:05 41.55956 35.46994 36929 ft 450 kts 111°
2026-04-26 18:05 41.53846 35.54864 36927 ft 450 kts 111°
2026-04-26 18:06 41.51734 35.62716 36929 ft 450 kts 111°
2026-04-26 18:06 41.49665 35.70588 36929 ft 451 kts 107°
2026-04-26 18:07 41.47999 35.78647 36932 ft 450 kts 109°
2026-04-26 18:07 41.45992 35.86548 36939 ft 450 kts 111°
2026-04-26 18:08 41.43852 35.94397 36939 ft 450 kts 111°
2026-04-26 18:08 41.41708 36.02228 36941 ft 450 kts 111°
2026-04-26 18:09 41.39559 36.10063 36950 ft 450 kts 112°
2026-04-26 18:09 41.37410 36.17877 36949 ft 450 kts 112°
2026-04-26 18:10 41.35252 36.25696 36956 ft 450 kts 112°
2026-04-26 18:10 41.33092 36.33504 36960 ft 450 kts 112°
2026-04-26 18:11 41.30924 36.41311 36960 ft 450 kts 112°
2026-04-26 18:11 41.28750 36.49119 36959 ft 450 kts 112°
2026-04-26 18:12 41.27086 36.57145 36961 ft 453 kts 102°
2026-04-26 18:12 41.25728 36.65306 36960 ft 453 kts 103°
2026-04-26 18:13 41.24938 36.73623 36961 ft 455 kts 95°
2026-04-26 18:13 41.24537 36.82012 36960 ft 455 kts 97°
2026-04-26 18:14 41.23950 36.90382 36960 ft 455 kts 98°
2026-04-26 18:14 41.23311 36.98750 36960 ft 455 kts 98°
2026-04-26 18:15 41.22664 37.07154 36967 ft 460 kts 98°
2026-04-26 18:15 41.22007 37.15613 36979 ft 461 kts 98°
2026-04-26 18:16 41.21348 37.24087 36979 ft 462 kts 97°
2026-04-26 18:16 41.20421 37.36826 36974 ft 462 kts 97°
2026-04-26 18:17 41.19790 37.45323 36969 ft 462 kts 97°
2026-04-26 18:17 41.19156 37.53809 36968 ft 462 kts 97°
2026-04-26 18:18 41.18666 37.62332 36971 ft 463 kts 98°
2026-04-26 18:18 41.18083 37.69392 36971 ft 463 kts 98°
2026-04-26 18:19 41.17364 37.77885 36970 ft 463 kts 98°
2026-04-26 18:19 41.16641 37.86364 36967 ft 462 kts 98°
2026-04-26 18:20 41.15943 37.94864 36961 ft 464 kts 98°
2026-04-26 18:20 41.15387 38.01928 36960 ft 463 kts 98°
2026-04-26 18:21 41.14585 38.11886 36960 ft 464 kts 98°
2026-04-26 18:21 41.13888 38.20404 36960 ft 464 kts 98°
2026-04-26 18:22 41.13187 38.28910 36960 ft 464 kts 98°
2026-04-26 18:22 41.12486 38.37428 36961 ft 464 kts 98°
2026-04-26 18:23 41.11778 38.45950 36961 ft 465 kts 98°
2026-04-26 18:23 41.11063 38.54474 36960 ft 465 kts 98°
2026-04-26 18:24 41.10338 38.63003 36960 ft 465 kts 99°
2026-04-26 18:24 41.09595 38.71519 36961 ft 465 kts 99°
2026-04-26 18:25 41.08829 38.80017 36959 ft 464 kts 99°
2026-04-26 18:25 41.08056 38.88519 36952 ft 464 kts 99°
2026-04-26 18:26 41.07278 38.97024 36950 ft 465 kts 99°
2026-04-26 18:26 41.06499 39.05475 36950 ft 465 kts 99°
2026-04-26 18:27 41.05709 39.13988 36947 ft 465 kts 99°
2026-04-26 18:27 41.04928 39.22494 36939 ft 465 kts 99°
2026-04-26 18:28 41.04144 39.31001 36941 ft 465 kts 99°
2026-04-26 18:28 41.03352 39.39493 36939 ft 465 kts 99°
2026-04-26 18:29 41.02553 39.48003 36940 ft 466 kts 99°
2026-04-26 18:29 41.01748 39.56518 36939 ft 466 kts 100°
2026-04-26 18:30 41.00936 39.65022 36941 ft 465 kts 100°
2026-04-26 18:30 41.00113 39.73578 36936 ft 466 kts 100°
2026-04-26 18:31 40.99527 39.82059 36935 ft 468 kts 94°
2026-04-26 18:31 40.99757 39.90681 36940 ft 469 kts 90°
2026-04-26 18:32 40.99792 39.99297 36940 ft 468 kts 93°
2026-04-26 18:32 40.99579 40.07899 36939 ft 466 kts 99°
2026-04-26 18:33 40.98806 40.16414 36948 ft 467 kts 98°
2026-04-26 18:33 40.98448 40.25008 36949 ft 468 kts 95°
2026-04-26 18:34 40.98216 40.33615 36950 ft 468 kts 95°
2026-04-26 18:34 40.97978 40.42229 36959 ft 469 kts 95°
2026-04-26 18:35 40.97729 40.50857 36950 ft 469 kts 95°
2026-04-26 18:35 40.97474 40.59472 36951 ft 469 kts 95°
2026-04-26 18:36 40.97212 40.68094 36951 ft 469 kts 95°
2026-04-26 18:36 40.96942 40.76710 36946 ft 468 kts 95°
2026-04-26 18:37 40.96668 40.85311 36948 ft 468 kts 95°
2026-04-26 18:37 40.96387 40.93909 36950 ft 468 kts 95°
2026-04-26 18:38 40.96100 41.02518 36952 ft 468 kts 96°
2026-04-26 18:38 40.95805 41.11125 36952 ft 469 kts 96°
2026-04-26 18:39 40.95504 41.19748 36953 ft 469 kts 96°
2026-04-26 18:39 40.95197 41.28359 36957 ft 468 kts 96°
2026-04-26 18:40 40.94884 41.36962 36956 ft 468 kts 96°
2026-04-26 18:40 40.94564 41.45569 36974 ft 469 kts 96°
2026-04-26 18:41 40.94238 41.54181 36978 ft 469 kts 96°
2026-04-26 18:41 40.93905 41.62783 36980 ft 469 kts 96°
2026-04-26 18:42 40.93566 41.71391 36989 ft 469 kts 96°
2026-04-26 18:42 40.93220 41.80006 37006 ft 469 kts 96°
2026-04-26 18:43 40.92867 41.88619 37010 ft 469 kts 96°
2026-04-26 18:43 40.92509 41.97225 37013 ft 469 kts 96°
2026-04-26 18:44 40.92144 42.05837 37021 ft 469 kts 97°
2026-04-26 18:44 40.91773 42.14449 37023 ft 469 kts 97°
2026-04-26 18:45 40.91396 42.23055 37029 ft 469 kts 97°
2026-04-26 18:45 40.91011 42.31673 37035 ft 469 kts 97°
2026-04-26 18:46 40.90619 42.40281 37042 ft 469 kts 97°
2026-04-26 18:46 40.90222 42.48899 37048 ft 470 kts 97°
2026-04-26 18:47 40.89818 42.57507 37063 ft 469 kts 97°
2026-04-26 18:47 40.89251 42.66068 37073 ft 467 kts 99°
2026-04-26 18:48 40.88720 42.74636 37081 ft 468 kts 97°
2026-04-26 18:48 40.88290 42.83232 37091 ft 469 kts 97°
2026-04-26 18:49 40.87864 42.91823 37094 ft 469 kts 97°
2026-04-26 18:49 40.87479 43.00427 37098 ft 470 kts 95°
2026-04-26 18:50 40.87231 43.09058 37099 ft 470 kts 96°
2026-04-26 18:50 40.86819 43.17657 37100 ft 469 kts 97°
2026-04-26 18:51 40.86362 43.26245 37095 ft 469 kts 97°
2026-04-26 18:51 40.85899 43.34839 37103 ft 469 kts 97°
2026-04-26 18:52 40.85431 43.43427 37105 ft 469 kts 97°
2026-04-26 18:52 40.84957 43.52016 37113 ft 468 kts 97°
2026-04-26 18:53 40.84476 43.60584 37113 ft 468 kts 97°
2026-04-26 18:53 40.84026 43.69171 37107 ft 469 kts 96°
2026-04-26 18:54 40.83744 43.77779 37114 ft 469 kts 96°
2026-04-26 18:54 40.83524 43.86397 37110 ft 470 kts 94°
2026-04-26 18:55 40.83405 43.95009 37110 ft 469 kts 95°
2026-04-26 18:55 40.83345 44.03641 37106 ft 470 kts 93°
2026-04-26 18:56 40.82850 44.12199 37105 ft 467 kts 100°
2026-04-26 18:56 40.82285 44.20754 37098 ft 468 kts 97°
2026-04-26 18:57 40.82053 44.26434 37089 ft 468 kts 96°
2026-04-26 18:57 40.81634 44.37870 37080 ft 469 kts 96°
2026-04-26 18:58 40.81307 44.46518 37082 ft 468 kts 96°
2026-04-26 18:58 40.80975 44.55053 37096 ft 469 kts 96°
2026-04-26 18:59 40.80635 44.63638 37083 ft 469 kts 96°
2026-04-26 18:59 40.80289 44.72228 37065 ft 468 kts 96°
2026-04-26 19:00 40.79935 44.80816 37050 ft 468 kts 96°
2026-04-26 19:00 40.79634 44.87997 37032 ft 468 kts 96°
2026-04-26 19:01 40.79210 44.97962 37023 ft 468 kts 96°
2026-04-26 19:01 40.78898 45.05153 37027 ft 468 kts 96°
2026-04-26 19:02 40.78521 45.13726 37039 ft 468 kts 96°
2026-04-26 19:02 40.78203 45.20839 37042 ft 468 kts 97°
2026-04-26 19:03 40.77746 45.30863 37051 ft 468 kts 97°
2026-04-26 19:03 40.77351 45.39425 37055 ft 468 kts 97°
2026-04-26 19:04 40.76948 45.47989 37049 ft 468 kts 97°
2026-04-26 19:04 40.76262 45.56494 37050 ft 466 kts 100°
2026-04-26 19:05 40.75112 45.69198 37060 ft 465 kts 100°
2026-04-26 19:06 40.74338 45.77669 37059 ft 465 kts 100°
2026-04-26 19:06 40.73559 45.86130 37059 ft 465 kts 100°
2026-04-26 19:07 40.72774 45.94590 37058 ft 465 kts 101°
2026-04-26 19:07 40.71985 46.03036 37050 ft 464 kts 101°
2026-04-26 19:08 40.71179 46.11486 37048 ft 465 kts 101°
2026-04-26 19:08 40.69936 46.19817 37049 ft 463 kts 105°
2026-04-26 19:09 40.68875 46.28198 37050 ft 465 kts 101°
2026-04-26 19:09 40.68472 46.36728 37050 ft 467 kts 96°
2026-04-26 19:10 40.67770 46.45197 37048 ft 463 kts 104°
2026-04-26 19:10 40.67009 46.53660 37047 ft 466 kts 99°
2026-04-26 19:11 40.66274 46.62143 37058 ft 466 kts 100°
2026-04-26 19:11 40.65446 46.70546 37056 ft 465 kts 101°
2026-04-26 19:12 40.64596 46.78995 37053 ft 465 kts 101°
2026-04-26 19:12 40.63743 46.87443 37051 ft 466 kts 101°
2026-04-26 19:13 40.62883 46.95896 37048 ft 466 kts 101°
2026-04-26 19:13 40.62017 47.04346 37050 ft 466 kts 101°
2026-04-26 19:14 40.61145 47.12798 37054 ft 466 kts 101°
2026-04-26 19:14 40.60500 47.21297 37052 ft 468 kts 95°
2026-04-26 19:15 40.60259 47.29864 37051 ft 468 kts 95°
2026-04-26 19:15 40.60017 47.38424 37048 ft 468 kts 95°
2026-04-26 19:16 40.59764 47.46981 37049 ft 468 kts 95°
2026-04-26 19:16 40.59504 47.55535 37054 ft 468 kts 95°
2026-04-26 19:17 40.59240 47.64080 37050 ft 468 kts 95°
2026-04-26 19:17 40.58969 47.72626 37049 ft 467 kts 95°
2026-04-26 19:18 40.58711 47.81174 37050 ft 467 kts 95°
2026-04-26 19:18 40.58414 47.89714 37050 ft 467 kts 95°
2026-04-26 19:19 40.58104 47.98249 37048 ft 467 kts 96°
2026-04-26 19:19 40.57714 48.06768 37047 ft 467 kts 96°
2026-04-26 19:20 40.57321 48.15294 37050 ft 467 kts 96°
2026-04-26 19:20 40.56928 48.23816 37044 ft 467 kts 96°
2026-04-26 19:21 40.56531 48.32338 37038 ft 467 kts 96°
2026-04-26 19:21 40.56127 48.40868 37043 ft 467 kts 96°
2026-04-26 19:22 40.55718 48.49389 37042 ft 467 kts 96°
2026-04-26 19:22 40.55302 48.57925 37041 ft 468 kts 96°
2026-04-26 19:23 40.54878 48.66477 37032 ft 468 kts 96°
2026-04-26 19:23 40.54448 48.75020 37031 ft 468 kts 96°
2026-04-26 19:24 40.54013 48.83564 37027 ft 468 kts 96°
2026-04-26 19:24 40.53346 48.96382 37024 ft 469 kts 96°
2026-04-26 19:25 40.52970 49.03489 37020 ft 468 kts 96°
2026-04-26 19:25 40.52434 49.13476 37020 ft 468 kts 96°
2026-04-26 19:26 40.51969 49.22011 37012 ft 468 kts 96°
2026-04-26 19:26 40.51498 49.30553 37011 ft 469 kts 97°
2026-04-26 19:27 40.51022 49.39089 37011 ft 468 kts 97°
2026-04-26 19:27 40.50542 49.47606 37004 ft 468 kts 97°
2026-04-26 19:28 40.50055 49.56140 37000 ft 468 kts 97°
2026-04-26 19:28 40.49562 49.64647 37000 ft 467 kts 97°
2026-04-26 19:29 40.49061 49.73155 36999 ft 467 kts 97°
2026-04-26 19:29 40.48557 49.81648 37000 ft 467 kts 97°
2026-04-26 19:30 40.48047 49.90147 37001 ft 467 kts 97°
2026-04-26 19:30 40.47618 49.97215 36994 ft 467 kts 97°
2026-04-26 19:31 40.46876 50.07116 36990 ft 465 kts 102°
2026-04-26 19:31 40.45751 50.15465 36991 ft 464 kts 103°
2026-04-26 19:32 40.44603 50.23818 36991 ft 465 kts 103°
2026-04-26 19:32 40.43509 50.32194 36991 ft 465 kts 103°
2026-04-26 19:33 40.42396 50.40559 36999 ft 465 kts 103°
2026-04-26 19:33 40.41262 50.48921 37001 ft 465 kts 103°
2026-04-26 19:34 40.40104 50.57220 37000 ft 466 kts 105°
2026-04-26 19:34 40.38803 50.65546 37001 ft 466 kts 104°
2026-04-26 19:35 40.37631 50.73923 37000 ft 467 kts 103°
2026-04-26 19:35 40.36488 50.82309 37010 ft 467 kts 103°
2026-04-26 19:36 40.35718 50.87917 37010 ft 467 kts 103°
2026-04-26 19:36 40.33763 50.98899 37009 ft 461 kts 115°
2026-04-26 19:37 40.31261 51.06631 37018 ft 461 kts 117°
2026-04-26 19:37 40.28769 51.14379 37019 ft 462 kts 116°
2026-04-26 19:38 40.26309 51.22145 37020 ft 462 kts 116°
2026-04-26 19:38 40.23849 51.29899 37028 ft 461 kts 117°
2026-04-26 19:39 40.21387 51.37647 37029 ft 461 kts 117°
2026-04-26 19:39 40.18916 51.45382 37038 ft 460 kts 117°
2026-04-26 19:40 40.16447 51.53097 37041 ft 460 kts 117°
2026-04-26 19:40 40.13936 51.60777 37049 ft 460 kts 117°
2026-04-26 19:41 40.11485 51.68498 37053 ft 460 kts 117°
2026-04-26 19:41 40.09830 51.73654 37047 ft 459 kts 117°
2026-04-26 19:42 40.06527 51.83865 37057 ft 459 kts 117°
2026-04-26 19:42 40.04459 51.90236 37061 ft 459 kts 117°
2026-04-26 19:43 40.01964 51.97897 37061 ft 459 kts 117°
2026-04-26 19:43 39.99466 52.05552 37060 ft 459 kts 117°
2026-04-26 19:44 39.96963 52.13202 37066 ft 459 kts 117°
2026-04-26 19:44 39.94455 52.20844 37070 ft 458 kts 117°
2026-04-26 19:45 39.91946 52.28477 37070 ft 458 kts 117°
2026-04-26 19:45 39.89415 52.36161 37070 ft 458 kts 117°
2026-04-26 19:46 39.86912 52.43739 37075 ft 458 kts 117°
2026-04-26 19:46 39.84364 52.51400 37080 ft 458 kts 117°
2026-04-26 19:47 39.82249 52.57721 37079 ft 459 kts 117°
2026-04-26 19:47 39.79295 52.66566 37082 ft 459 kts 117°
2026-04-26 19:48 39.76750 52.74175 37082 ft 459 kts 117°
2026-04-26 19:48 39.74201 52.81775 37081 ft 459 kts 117°
2026-04-26 19:49 39.71651 52.89383 37080 ft 459 kts 117°
2026-04-26 19:49 39.69104 52.96976 37080 ft 459 kts 117°
2026-04-26 19:50 39.66537 53.04573 37080 ft 459 kts 117°
2026-04-26 19:50 39.63962 53.12166 37080 ft 460 kts 118°
2026-04-26 19:51 39.61385 53.19746 37079 ft 459 kts 118°
2026-04-26 19:51 39.58799 53.27330 37081 ft 460 kts 118°
2026-04-26 19:52 39.56211 53.34905 37077 ft 459 kts 118°
2026-04-26 19:52 39.53620 53.42468 37080 ft 459 kts 118°
2026-04-26 19:53 39.51020 53.50034 37081 ft 459 kts 118°
2026-04-26 19:53 39.48422 53.57575 37079 ft 459 kts 118°
2026-04-26 19:54 39.45815 53.65123 37081 ft 459 kts 118°
2026-04-26 19:54 39.43203 53.72669 37088 ft 459 kts 118°
2026-04-26 19:55 39.40588 53.80199 37088 ft 459 kts 118°
2026-04-26 19:55 39.37968 53.87723 37091 ft 459 kts 118°
2026-04-26 19:56 39.35342 53.95248 37095 ft 459 kts 118°
2026-04-26 19:56 39.32711 54.02767 37091 ft 459 kts 118°
2026-04-26 19:57 39.30083 54.10290 37096 ft 460 kts 118°
2026-04-26 19:57 39.27450 54.17811 37091 ft 460 kts 118°
2026-04-26 19:58 39.24801 54.25325 37099 ft 460 kts 118°
2026-04-26 19:58 39.22149 54.32825 37085 ft 460 kts 118°
2026-04-26 19:59 39.19491 54.40327 37096 ft 460 kts 118°
2026-04-26 19:59 39.16824 54.47831 37097 ft 461 kts 118°
2026-04-26 20:00 39.14141 54.55322 37094 ft 460 kts 118°
2026-04-26 20:00 39.11450 54.62803 37094 ft 461 kts 119°
2026-04-26 20:01 39.08765 54.70297 37092 ft 461 kts 118°
2026-04-26 20:01 39.06077 54.77783 37087 ft 461 kts 118°
2026-04-26 20:02 39.03390 54.85272 37100 ft 461 kts 118°
2026-04-26 20:02 39.01148 54.91494 37092 ft 461 kts 118°
2026-04-26 20:03 38.97987 55.00237 37090 ft 461 kts 119°
2026-04-26 20:03 38.95275 55.07715 37088 ft 461 kts 119°
2026-04-26 20:04 38.92556 55.15192 37099 ft 462 kts 119°
2026-04-26 20:04 38.89834 55.22662 37088 ft 462 kts 119°
2026-04-26 20:05 38.87102 55.30141 37087 ft 463 kts 119°
2026-04-26 20:05 38.84364 55.37612 37086 ft 463 kts 119°
2026-04-26 20:06 38.81624 55.45075 37092 ft 462 kts 119°
2026-04-26 20:06 38.78877 55.52534 37099 ft 463 kts 119°
2026-04-26 20:07 38.76125 55.59992 37095 ft 463 kts 119°
2026-04-26 20:07 38.73366 55.67450 37104 ft 464 kts 119°
2026-04-26 20:08 38.70599 55.74910 37094 ft 464 kts 120°
2026-04-26 20:08 38.67829 55.82358 37101 ft 464 kts 120°
2026-04-26 20:09 38.65051 55.89812 37107 ft 464 kts 120°
2026-04-26 20:09 38.62270 55.97255 37101 ft 464 kts 120°
2026-04-26 20:10 38.59481 56.04700 37106 ft 465 kts 120°
2026-04-26 20:10 38.56547 56.12042 37100 ft 462 kts 125°
2026-04-26 20:11 38.53369 56.19184 37101 ft 464 kts 122°
2026-04-26 20:12 38.49092 56.30300 37097 ft 465 kts 120°
2026-04-26 20:12 38.46282 56.37737 37096 ft 465 kts 120°
2026-04-26 20:13 38.43464 56.45163 37100 ft 465 kts 120°
2026-04-26 20:13 38.40642 56.52578 37099 ft 465 kts 120°
2026-04-26 20:14 38.37865 56.59963 37096 ft 466 kts 117°
2026-04-26 20:14 38.35457 56.67657 37106 ft 467 kts 117°
2026-04-26 20:15 38.32751 56.75154 37100 ft 465 kts 120°
2026-04-26 20:15 38.29909 56.82543 37103 ft 465 kts 120°
2026-04-26 20:16 38.27060 56.89925 37095 ft 464 kts 120°
2026-04-26 20:16 38.24213 56.97296 37102 ft 464 kts 120°
2026-04-26 20:17 38.21366 57.04652 37102 ft 464 kts 120°
2026-04-26 20:17 38.18509 57.12014 37106 ft 464 kts 120°
2026-04-26 20:18 38.15649 57.19366 37109 ft 464 kts 120°
2026-04-26 20:18 38.12787 57.26707 37104 ft 464 kts 120°
2026-04-26 20:19 38.09923 57.34037 37106 ft 464 kts 120°
2026-04-26 20:19 38.07053 57.41359 37099 ft 464 kts 120°
2026-04-26 20:20 38.04177 57.48687 37090 ft 463 kts 120°
2026-04-26 20:20 38.01299 57.55998 37091 ft 464 kts 121°
2026-04-26 20:21 37.98418 57.63304 37086 ft 463 kts 120°
2026-04-26 20:21 37.95528 57.70611 37080 ft 464 kts 121°
2026-04-26 20:22 37.92637 57.77904 37079 ft 463 kts 121°
2026-04-26 20:22 37.89747 57.85178 37079 ft 462 kts 121°
2026-04-26 20:23 37.86854 57.92440 37075 ft 462 kts 121°
2026-04-26 20:23 37.84444 57.98478 37070 ft 462 kts 121°
2026-04-26 20:24 37.81544 58.05725 37069 ft 462 kts 121°
2026-04-26 20:24 37.78637 58.12977 37062 ft 463 kts 121°
2026-04-26 20:25 37.75722 58.20232 37061 ft 463 kts 121°
2026-04-26 20:25 37.72801 58.27482 37061 ft 463 kts 121°
2026-04-26 20:26 37.69872 58.34735 37059 ft 463 kts 121°
2026-04-26 20:26 37.66941 58.41975 37062 ft 463 kts 121°
2026-04-26 20:27 37.64006 58.49213 37061 ft 463 kts 121°
2026-04-26 20:27 37.61065 58.56449 37067 ft 464 kts 122°
2026-04-26 20:28 37.58114 58.63688 37070 ft 464 kts 122°
2026-04-26 20:28 37.55161 58.70941 37070 ft 466 kts 121°
2026-04-26 20:29 37.52585 58.78467 37076 ft 468 kts 118°
2026-04-26 20:29 37.49785 58.85850 37081 ft 467 kts 122°
2026-04-26 20:30 37.46806 58.93109 37081 ft 467 kts 122°
2026-04-26 20:30 37.43810 59.00359 37081 ft 467 kts 122°
2026-04-26 20:31 37.40813 59.07610 37099 ft 467 kts 122°
2026-04-26 20:31 37.37810 59.14859 37087 ft 467 kts 122°
2026-04-26 20:32 37.34805 59.22098 37101 ft 467 kts 122°
2026-04-26 20:32 37.31792 59.29318 37096 ft 466 kts 124°
2026-04-26 20:33 37.28376 59.36194 37112 ft 465 kts 127°
2026-04-26 20:33 37.25209 59.43296 37117 ft 467 kts 123°
2026-04-26 20:34 37.22182 59.50518 37117 ft 468 kts 123°
2026-04-26 20:34 37.19156 59.57738 37125 ft 467 kts 123°
2026-04-26 20:35 37.16121 59.64949 37130 ft 467 kts 123°
2026-04-26 20:35 37.13079 59.72152 37129 ft 468 kts 123°
2026-04-26 20:36 37.10037 59.79350 37134 ft 468 kts 123°
2026-04-26 20:36 37.06988 59.86547 37141 ft 468 kts 123°
2026-04-26 20:37 37.03935 59.93733 37135 ft 468 kts 123°
2026-04-26 20:37 37.00876 60.00917 37140 ft 468 kts 123°
2026-04-26 20:38 36.97807 60.08111 37139 ft 469 kts 124°
2026-04-26 20:38 36.94731 60.15305 37138 ft 469 kts 124°
2026-04-26 20:39 36.91655 60.22483 37144 ft 469 kts 124°
2026-04-26 20:39 36.88570 60.29667 37150 ft 469 kts 124°
2026-04-26 20:40 36.85479 60.36848 37149 ft 469 kts 124°
2026-04-26 20:40 36.82386 60.44020 37150 ft 469 kts 124°
2026-04-26 20:41 36.79287 60.51187 37151 ft 469 kts 124°
2026-04-26 20:41 36.76186 60.58341 37146 ft 469 kts 124°
2026-04-26 20:42 36.73084 60.65446 37141 ft 469 kts 124°
2026-04-26 20:42 36.69943 60.72623 37139 ft 469 kts 124°
2026-04-26 20:43 36.66828 60.79762 37141 ft 469 kts 124°
2026-04-26 20:43 36.63707 60.86895 37141 ft 469 kts 124°
2026-04-26 20:44 36.60582 60.94026 37141 ft 469 kts 124°
2026-04-26 20:44 36.57451 61.01154 37141 ft 469 kts 124°
2026-04-26 20:45 36.54319 61.08269 37140 ft 469 kts 124°
2026-04-26 20:45 36.51185 61.15370 37140 ft 469 kts 124°
2026-04-26 20:46 36.48045 61.22467 37140 ft 469 kts 124°
2026-04-26 20:46 36.44903 61.29558 37142 ft 469 kts 124°
2026-04-26 20:47 36.41758 61.36641 37141 ft 468 kts 125°
2026-04-26 20:47 36.38605 61.43725 37140 ft 468 kts 125°
2026-04-26 20:48 36.35453 61.50795 37133 ft 468 kts 125°
2026-04-26 20:48 36.32294 61.57866 37140 ft 468 kts 125°
2026-04-26 20:49 36.29132 61.64922 37141 ft 468 kts 125°
2026-04-26 20:49 36.25967 61.71974 37140 ft 468 kts 125°
2026-04-26 20:50 36.22802 61.79010 37142 ft 468 kts 125°
2026-04-26 20:50 36.19632 61.86042 37142 ft 468 kts 125°
2026-04-26 20:51 36.16459 61.93066 37138 ft 467 kts 125°
2026-04-26 20:51 36.13282 62.00090 37128 ft 467 kts 125°
2026-04-26 20:52 36.10107 62.07095 37115 ft 467 kts 125°
2026-04-26 20:52 36.06922 62.14105 37107 ft 467 kts 125°
2026-04-26 20:53 36.03734 62.21101 37109 ft 467 kts 125°
2026-04-26 20:53 36.00541 62.28098 37103 ft 467 kts 125°
2026-04-26 20:54 35.97345 62.35084 37102 ft 467 kts 125°
2026-04-26 20:54 35.94147 62.42065 37095 ft 467 kts 125°
2026-04-26 20:55 35.90941 62.49050 37103 ft 467 kts 125°
2026-04-26 20:55 35.87732 62.56022 37094 ft 467 kts 125°
2026-04-26 20:56 35.84519 62.62987 37099 ft 468 kts 125°
2026-04-26 20:56 35.81300 62.69957 37096 ft 468 kts 125°
2026-04-26 20:57 35.78074 62.76927 37086 ft 468 kts 125°
2026-04-26 20:57 35.74847 62.83885 37086 ft 468 kts 125°
2026-04-26 20:58 35.71614 62.90842 37079 ft 468 kts 125°
2026-04-26 20:58 35.68376 62.97798 37063 ft 468 kts 125°
2026-04-26 20:59 35.65135 63.04745 37061 ft 468 kts 125°
2026-04-26 20:59 35.61891 63.11682 37061 ft 468 kts 125°
2026-04-26 21:00 35.58635 63.18594 37053 ft 467 kts 127°
2026-04-26 21:00 35.54824 63.24972 37048 ft 462 kts 133°
2026-04-26 21:01 35.50898 63.31208 37051 ft 462 kts 133°
2026-04-26 21:01 35.46972 63.37453 37049 ft 462 kts 133°
2026-04-26 21:02 35.43074 63.43649 37039 ft 462 kts 133°
2026-04-26 21:02 35.39147 63.49879 37042 ft 462 kts 133°
2026-04-26 21:03 35.35218 63.56104 37032 ft 461 kts 133°
2026-04-26 21:03 35.31286 63.62321 37028 ft 462 kts 133°
2026-04-26 21:04 35.27356 63.68540 37023 ft 462 kts 133°
2026-04-26 21:04 35.23433 63.74768 37010 ft 462 kts 133°
2026-04-26 21:05 35.20144 63.79978 37008 ft 462 kts 133°
2026-04-26 21:05 35.16216 63.86187 37005 ft 462 kts 133°
2026-04-26 21:06 35.12292 63.92378 37000 ft 461 kts 134°
2026-04-26 21:06 35.08362 63.98565 37002 ft 461 kts 133°
2026-04-26 21:07 35.04430 64.04749 36999 ft 462 kts 133°
2026-04-26 21:07 35.00485 64.10943 36989 ft 462 kts 134°
2026-04-26 21:08 34.96535 64.17133 36991 ft 463 kts 134°
2026-04-26 21:08 34.92579 64.23324 36990 ft 463 kts 134°
2026-04-26 21:09 34.88645 64.29466 36986 ft 463 kts 134°
2026-04-26 21:09 34.84655 64.35685 36981 ft 463 kts 134°
2026-04-26 21:10 34.80713 64.41819 36980 ft 463 kts 134°
2026-04-26 21:10 34.76738 64.47996 36979 ft 464 kts 134°
2026-04-26 21:11 34.72760 64.54166 36979 ft 464 kts 134°
2026-04-26 21:11 34.68773 64.60339 36970 ft 464 kts 134°
2026-04-26 21:12 34.64788 64.66502 36972 ft 464 kts 134°
2026-04-26 21:12 34.60797 64.72658 36970 ft 464 kts 134°
2026-04-26 21:13 34.56808 64.78804 36967 ft 464 kts 134°
2026-04-26 21:13 34.52811 64.84951 36960 ft 464 kts 134°
2026-04-26 21:14 34.48805 64.91102 36961 ft 465 kts 134°
2026-04-26 21:14 34.44786 64.97243 36955 ft 467 kts 134°
2026-04-26 21:15 34.40728 65.03433 36946 ft 470 kts 134°
2026-04-26 21:15 34.36661 65.09635 36940 ft 470 kts 134°
2026-04-26 21:16 34.32602 65.15810 36942 ft 469 kts 134°
2026-04-26 21:16 34.28544 65.21973 36938 ft 468 kts 134°
2026-04-26 21:17 34.24483 65.28131 36930 ft 468 kts 134°
2026-04-26 21:17 34.20420 65.34281 36931 ft 468 kts 134°
2026-04-26 21:18 34.16357 65.40420 36931 ft 468 kts 134°
2026-04-26 21:18 34.12297 65.46545 36940 ft 467 kts 134°
2026-04-26 21:19 34.08230 65.52668 36933 ft 467 kts 134°
2026-04-26 21:19 34.04170 65.58783 36930 ft 467 kts 134°
2026-04-26 21:20 34.00108 65.64900 36932 ft 467 kts 134°
2026-04-26 21:20 33.96050 65.70997 36931 ft 467 kts 133°
2026-04-26 21:21 33.91986 65.77096 36933 ft 467 kts 133°
2026-04-26 21:21 33.87918 65.83189 36916 ft 467 kts 134°
2026-04-26 21:22 33.83850 65.89270 36907 ft 467 kts 134°
2026-04-26 21:22 33.79779 65.95346 36888 ft 466 kts 134°
2026-04-26 21:23 33.73683 66.04428 36883 ft 465 kts 134°
2026-04-26 21:23 33.69616 66.10473 36887 ft 465 kts 134°
2026-04-26 21:24 33.65549 66.16507 36889 ft 465 kts 134°
2026-04-26 21:24 33.61468 66.22553 36880 ft 466 kts 134°
2026-04-26 21:25 33.57392 66.28584 36879 ft 466 kts 134°
2026-04-26 21:25 33.53301 66.34623 36879 ft 466 kts 134°
2026-04-26 21:26 33.49211 66.40654 36879 ft 466 kts 134°
2026-04-26 21:26 33.45112 66.46684 36882 ft 467 kts 134°
2026-04-26 21:27 33.40999 66.52698 36873 ft 467 kts 134°
2026-04-26 21:27 33.36886 66.58700 36872 ft 467 kts 134°
2026-04-26 21:28 33.32765 66.64709 36871 ft 467 kts 134°
2026-04-26 21:28 33.28645 66.70704 36868 ft 467 kts 134°
2026-04-26 21:29 33.24524 66.76693 36873 ft 467 kts 134°
2026-04-26 21:29 33.20395 66.82682 36862 ft 467 kts 134°
2026-04-26 21:30 33.16269 66.88658 36859 ft 467 kts 134°
2026-04-26 21:30 33.12132 66.94641 36860 ft 468 kts 134°
2026-04-26 21:31 33.07989 67.00621 36861 ft 468 kts 134°
2026-04-26 21:31 33.03838 67.06604 36853 ft 468 kts 134°
2026-04-26 21:32 32.99686 67.12577 36850 ft 468 kts 134°
2026-04-26 21:32 32.95536 67.18539 36848 ft 467 kts 135°
2026-04-26 21:33 32.91372 67.24510 36849 ft 469 kts 135°
2026-04-26 21:33 32.87202 67.30482 36842 ft 469 kts 135°
2026-04-26 21:34 32.83033 67.36443 36838 ft 469 kts 135°
2026-04-26 21:34 32.78851 67.42411 36811 ft 469 kts 135°
2026-04-26 21:35 32.74593 67.48258 36795 ft 467 kts 136°
2026-04-26 21:35 32.70303 67.54068 36782 ft 468 kts 136°
2026-04-26 21:36 32.66764 67.58920 36769 ft 468 kts 136°
2026-04-26 21:36 32.61732 67.65698 36762 ft 468 kts 136°
2026-04-26 21:37 32.57414 67.71478 36757 ft 468 kts 137°
2026-04-26 21:37 32.53086 67.77261 36761 ft 469 kts 137°
2026-04-26 21:38 32.48813 67.83110 36760 ft 471 kts 134°
2026-04-26 21:38 32.44645 67.89101 36753 ft 471 kts 134°
2026-04-26 21:39 32.40484 67.95083 36750 ft 471 kts 134°
2026-04-26 21:39 32.36316 68.01059 36751 ft 471 kts 134°
2026-04-26 21:40 32.32142 68.07035 36750 ft 471 kts 134°
2026-04-26 21:40 32.27962 68.13007 36742 ft 472 kts 134°
2026-04-26 21:41 32.23780 68.18976 36740 ft 471 kts 134°
2026-04-26 21:41 32.19596 68.24935 36741 ft 471 kts 134°
2026-04-26 21:42 32.15369 68.30834 36742 ft 471 kts 135°
2026-04-26 21:42 32.11133 68.36737 36730 ft 469 kts 138°
2026-04-26 21:43 32.07373 68.41316 36729 ft 469 kts 138°
2026-04-26 21:43 32.03053 68.47109 36730 ft 471 kts 135°
2026-04-26 21:44 31.98857 68.53037 36731 ft 471 kts 134°
2026-04-26 21:44 31.93955 68.59965 36725 ft 471 kts 134°
2026-04-26 21:45 31.90469 68.64880 36720 ft 471 kts 134°
2026-04-26 21:45 31.86265 68.70794 36714 ft 471 kts 134°
2026-04-26 21:46 31.82068 68.76692 36711 ft 470 kts 134°
2026-04-26 21:46 31.77864 68.82588 36712 ft 471 kts 134°
2026-04-26 21:47 31.73660 68.88477 36708 ft 470 kts 134°
2026-04-26 21:47 31.69446 68.94368 36699 ft 470 kts 134°
2026-04-26 21:48 31.65276 69.00288 36701 ft 471 kts 132°
2026-04-26 21:48 31.61215 69.06323 36699 ft 472 kts 132°
2026-04-26 21:49 31.57149 69.12364 36697 ft 471 kts 132°
2026-04-26 21:49 31.53087 69.18386 36694 ft 471 kts 132°
2026-04-26 21:50 31.49030 69.24394 36690 ft 470 kts 132°
2026-04-26 21:50 31.44969 69.30395 36695 ft 470 kts 132°
2026-04-26 21:51 31.40898 69.36402 36691 ft 471 kts 132°
2026-04-26 21:51 31.36627 69.42163 36689 ft 464 kts 143°
2026-04-26 21:52 31.34019 69.44332 36685 ft 457 kts 156°
2026-04-26 21:52 31.31134 69.45785 36681 ft 449 kts 168°
2026-04-26 21:52 31.25090 69.47367 36685 ft 445 kts 174°
2026-04-26 21:53 31.19021 69.48825 36675 ft 445 kts 173°
2026-04-26 21:53 31.12956 69.50330 36679 ft 446 kts 173°
2026-04-26 21:54 31.06891 69.51843 36667 ft 446 kts 173°
2026-04-26 21:54 31.00825 69.53355 36667 ft 445 kts 173°
2026-04-26 21:55 30.94762 69.54862 36678 ft 446 kts 173°
2026-04-26 21:55 30.88739 69.56358 36665 ft 446 kts 173°
2026-04-26 21:56 30.82629 69.57874 36664 ft 446 kts 173°
2026-04-26 21:56 30.76588 69.59372 36682 ft 447 kts 173°
2026-04-26 21:57 30.70507 69.60879 36665 ft 447 kts 173°
2026-04-26 21:57 30.64426 69.62384 36664 ft 447 kts 173°
2026-04-26 21:58 30.58329 69.63891 36661 ft 448 kts 173°
2026-04-26 21:58 30.52236 69.65396 36661 ft 448 kts 173°
2026-04-26 21:59 30.46136 69.66901 36661 ft 448 kts 173°
2026-04-26 21:59 30.40028 69.68407 36660 ft 449 kts 173°
2026-04-26 22:00 30.33913 69.69913 36659 ft 449 kts 173°
2026-04-26 22:00 30.27797 69.71417 36660 ft 449 kts 173°
2026-04-26 22:01 30.21696 69.73053 36662 ft 452 kts 170°
2026-04-26 22:01 30.15598 69.74840 36659 ft 452 kts 170°
2026-04-26 22:02 30.09507 69.76627 36661 ft 452 kts 170°
2026-04-26 22:02 30.03406 69.78412 36659 ft 452 kts 170°
2026-04-26 22:03 29.97313 69.80194 36660 ft 452 kts 170°
2026-04-26 22:03 29.91243 69.82094 36659 ft 455 kts 164°
2026-04-26 22:04 29.85277 69.84523 36655 ft 453 kts 167°
2026-04-26 22:04 29.79194 69.86357 36665 ft 451 kts 171°
2026-04-26 22:05 29.73092 69.88079 36658 ft 452 kts 170°
2026-04-26 22:05 29.67001 69.89847 36660 ft 451 kts 170°
2026-04-26 22:06 29.60916 69.91618 36660 ft 451 kts 170°
2026-04-26 22:06 29.54833 69.93386 36660 ft 451 kts 170°
2026-04-26 22:07 29.48751 69.95153 36660 ft 451 kts 170°
2026-04-26 22:07 29.42665 69.96920 36660 ft 450 kts 170°
2026-04-26 22:08 29.36585 69.98683 36660 ft 451 kts 170°
2026-04-26 22:08 29.30512 70.00442 36660 ft 450 kts 170°
2026-04-26 22:09 29.24432 70.02201 36661 ft 451 kts 170°
2026-04-26 22:09 29.18344 70.03961 36660 ft 451 kts 170°
2026-04-26 22:10 29.12247 70.05721 36659 ft 451 kts 169°
2026-04-26 22:10 29.06155 70.07480 36661 ft 451 kts 169°
2026-04-26 22:11 29.00065 70.09237 36660 ft 451 kts 169°
2026-04-26 22:11 28.93974 70.10990 36663 ft 452 kts 169°
2026-04-26 22:12 28.87871 70.12744 36666 ft 452 kts 169°
2026-04-26 22:12 28.81772 70.14493 36666 ft 452 kts 169°
2026-04-26 22:13 28.75675 70.16242 36665 ft 452 kts 169°
2026-04-26 22:13 28.69574 70.17987 36670 ft 452 kts 169°
2026-04-26 22:14 28.63474 70.19734 36666 ft 452 kts 169°
2026-04-26 22:14 28.57371 70.21478 36666 ft 453 kts 169°
2026-04-26 22:15 28.51263 70.23220 36661 ft 452 kts 169°
2026-04-26 22:15 28.45161 70.24959 36679 ft 453 kts 169°
2026-04-26 22:16 28.39229 70.27402 36664 ft 460 kts 152°
2026-04-26 22:16 28.36644 70.29552 36668 ft 464 kts 139°
2026-04-26 22:16 28.34500 70.32302 36672 ft 467 kts 126°
2026-04-26 22:17 28.31480 70.38831 36671 ft 468 kts 116°
2026-04-26 22:17 28.28707 70.45502 36665 ft 468 kts 116°
2026-04-26 22:18 28.25884 70.52155 36670 ft 468 kts 117°
2026-04-26 22:18 28.23050 70.58791 36665 ft 468 kts 116°
2026-04-26 22:19 28.20213 70.65427 36676 ft 468 kts 116°
2026-04-26 22:19 28.17373 70.72057 36685 ft 468 kts 117°
2026-04-26 22:20 28.15011 70.77568 36677 ft 468 kts 116°
2026-04-26 22:20 28.11687 70.85310 36676 ft 468 kts 117°
2026-04-26 22:21 28.08834 70.91937 36673 ft 468 kts 117°
2026-04-26 22:21 28.05977 70.98563 36684 ft 468 kts 117°
2026-04-26 22:22 28.03119 71.05187 36679 ft 468 kts 117°
2026-04-26 22:22 28.00259 71.11804 36685 ft 468 kts 117°
2026-04-26 22:23 27.97397 71.18415 36676 ft 467 kts 117°
2026-04-26 22:23 27.94542 71.24996 36684 ft 466 kts 117°
2026-04-26 22:24 27.91684 71.31577 36675 ft 466 kts 117°
2026-04-26 22:24 27.88822 71.38157 36688 ft 467 kts 117°
2026-04-26 22:25 27.85908 71.44710 36680 ft 466 kts 118°
2026-04-26 22:25 27.82905 71.51156 36672 ft 466 kts 118°
2026-04-26 22:26 27.79869 71.57680 36668 ft 466 kts 118°
2026-04-26 22:26 27.77350 71.63063 36673 ft 466 kts 119°
2026-04-26 22:27 27.74315 71.69531 36667 ft 466 kts 119°
2026-04-26 22:27 27.70786 71.77038 36681 ft 466 kts 119°
2026-04-26 22:28 27.68241 71.82443 36677 ft 466 kts 119°
2026-04-26 22:28 27.64949 71.88709 36683 ft 464 kts 130°
2026-04-26 22:29 27.62704 71.91293 36683 ft 460 kts 143°
2026-04-26 22:29 27.60079 71.93321 36691 ft 457 kts 152°
2026-04-26 22:29 27.54588 71.96941 36692 ft 457 kts 152°
2026-04-26 22:30 27.49105 72.00572 36691 ft 457 kts 152°
2026-04-26 22:30 27.43641 72.04218 36693 ft 456 kts 152°
2026-04-26 22:31 27.38176 72.07864 36697 ft 457 kts 152°
2026-04-26 22:31 27.32715 72.11501 36689 ft 455 kts 152°
2026-04-26 22:32 27.27260 72.15132 36691 ft 456 kts 152°
2026-04-26 22:32 27.21807 72.18758 36700 ft 455 kts 152°
2026-04-26 22:33 27.13633 72.24183 36702 ft 455 kts 152°
2026-04-26 22:34 27.08186 72.27793 36701 ft 455 kts 152°
2026-04-26 22:34 27.02742 72.31396 36702 ft 454 kts 152°
2026-04-26 22:35 26.97303 72.34991 36700 ft 454 kts 152°
2026-04-26 22:35 26.91861 72.38585 36699 ft 454 kts 152°
2026-04-26 22:36 26.86427 72.42169 36708 ft 453 kts 152°
2026-04-26 22:36 26.80997 72.45747 36711 ft 453 kts 152°
2026-04-26 22:37 26.75573 72.49316 36711 ft 452 kts 152°
2026-04-26 22:37 26.70149 72.52881 36711 ft 452 kts 152°
2026-04-26 22:38 26.64618 72.56200 36710 ft 450 kts 158°
2026-04-26 22:38 26.59009 72.59314 36710 ft 451 kts 154°
2026-04-26 22:39 26.53553 72.62803 36718 ft 452 kts 152°
2026-04-26 22:39 26.48132 72.66357 36707 ft 452 kts 152°
2026-04-26 22:40 26.42713 72.69900 36700 ft 452 kts 152°
2026-04-26 22:40 26.37292 72.73440 36700 ft 451 kts 152°
2026-04-26 22:41 26.31934 72.77074 36698 ft 452 kts 146°
2026-04-26 22:41 26.26819 72.81140 36700 ft 451 kts 149°
2026-04-26 22:42 26.21467 72.84783 36708 ft 450 kts 152°
2026-04-26 22:42 26.16091 72.88264 36709 ft 450 kts 153°
2026-04-26 22:43 26.10625 72.91746 36710 ft 450 kts 152°
2026-04-26 22:43 26.05245 72.95218 36709 ft 450 kts 152°
2026-04-26 22:44 25.99834 72.98722 36710 ft 450 kts 152°
2026-04-26 22:44 25.94437 73.02223 36709 ft 448 kts 152°
2026-04-26 22:45 25.89081 73.05779 36710 ft 448 kts 152°
2026-04-26 22:45 25.83528 73.08869 36710 ft 446 kts 156°
2026-04-26 22:46 25.78056 73.12151 36709 ft 448 kts 152°
2026-04-26 22:46 25.72694 73.15665 36710 ft 448 kts 152°
2026-04-26 22:47 25.67497 73.19498 36710 ft 450 kts 146°
2026-04-26 22:47 25.62332 73.23386 36712 ft 448 kts 150°
2026-04-26 22:48 25.57004 73.26960 36725 ft 448 kts 152°
2026-04-26 22:48 25.51646 73.30477 36730 ft 448 kts 152°
2026-04-26 22:49 25.46290 73.33990 36730 ft 448 kts 152°
2026-04-26 22:49 25.40935 73.37503 36730 ft 448 kts 152°
2026-04-26 22:50 25.35593 73.41043 36731 ft 447 kts 152°
2026-04-26 22:50 25.30248 73.44588 36731 ft 447 kts 152°
2026-04-26 22:51 25.24911 73.48117 36731 ft 448 kts 152°
2026-04-26 22:51 25.19570 73.51646 36731 ft 447 kts 152°
2026-04-26 22:52 25.14270 73.55144 36729 ft 447 kts 152°
2026-04-26 22:52 25.08890 73.58692 36729 ft 446 kts 152°
2026-04-26 22:53 25.03561 73.62202 36730 ft 446 kts 152°
2026-04-26 22:53 24.98227 73.65712 36738 ft 446 kts 152°
2026-04-26 22:54 24.92892 73.69219 36739 ft 446 kts 152°
2026-04-26 22:54 24.87560 73.72720 36740 ft 446 kts 152°
2026-04-26 22:55 24.82229 73.76217 36740 ft 446 kts 152°
2026-04-26 22:55 24.76913 73.79719 36738 ft 446 kts 149°
2026-04-26 22:56 24.71841 73.83691 36739 ft 447 kts 148°
2026-04-26 22:56 24.66588 73.87327 36739 ft 445 kts 152°
2026-04-26 22:57 24.61490 73.91197 36740 ft 449 kts 142°
2026-04-26 22:57 24.57075 73.96079 36741 ft 451 kts 135°
2026-04-26 22:58 24.53195 74.01509 36740 ft 454 kts 127°
2026-04-26 22:58 24.49580 74.07200 36743 ft 454 kts 127°
2026-04-26 22:59 24.45919 74.12851 36749 ft 454 kts 128°
2026-04-26 22:59 24.42229 74.18472 36750 ft 454 kts 128°
2026-04-26 23:00 24.38519 74.24082 36751 ft 454 kts 128°
2026-04-26 23:00 24.34804 74.29677 36750 ft 454 kts 128°
2026-04-26 23:01 24.31072 74.35261 36752 ft 453 kts 130°
2026-04-26 23:01 24.27052 74.40567 36761 ft 453 kts 131°
2026-04-26 23:02 24.23218 74.45996 36758 ft 454 kts 129°
2026-04-26 23:02 24.19439 74.51534 36759 ft 454 kts 129°
2026-04-26 23:03 24.15664 74.57070 36768 ft 453 kts 129°
2026-04-26 23:03 24.11891 74.62593 36769 ft 453 kts 129°
2026-04-26 23:04 24.08106 74.68126 36775 ft 454 kts 129°
2026-04-26 23:04 24.04282 74.73619 36780 ft 453 kts 133°
2026-04-26 23:05 23.99610 74.78165 36792 ft 449 kts 144°
2026-04-26 23:05 23.94521 74.82096 36792 ft 447 kts 149°
2026-04-26 23:06 23.89416 74.86003 36790 ft 448 kts 148°
2026-04-26 23:06 23.84350 74.89975 36795 ft 448 kts 148°
2026-04-26 23:07 23.79291 74.93955 36801 ft 448 kts 148°
2026-04-26 23:07 23.74226 74.97938 36802 ft 449 kts 148°
2026-04-26 23:08 23.69156 75.01920 36802 ft 449 kts 148°
2026-04-26 23:08 23.64086 75.05898 36811 ft 449 kts 148°
2026-04-26 23:09 23.59010 75.09877 36811 ft 449 kts 148°
2026-04-26 23:09 23.54784 75.13186 36812 ft 450 kts 148°
2026-04-26 23:10 23.49704 75.17160 36811 ft 450 kts 148°
2026-04-26 23:10 23.44624 75.21133 36821 ft 450 kts 148°
2026-04-26 23:11 23.39534 75.25107 36817 ft 450 kts 148°
2026-04-26 23:11 23.34440 75.29071 36816 ft 450 kts 150°
2026-04-26 23:12 23.29050 75.32543 36829 ft 448 kts 153°
2026-04-26 23:12 23.23858 75.36327 36834 ft 450 kts 149°
2026-04-26 23:13 23.18754 75.40288 36827 ft 451 kts 149°
2026-04-26 23:13 23.13658 75.44256 36841 ft 451 kts 149°
2026-04-26 23:14 23.08552 75.48223 36836 ft 451 kts 149°
2026-04-26 23:14 23.03442 75.52187 36843 ft 452 kts 149°
2026-04-26 23:15 22.98332 75.56149 36839 ft 451 kts 150°
2026-04-26 23:15 22.93226 75.60102 36842 ft 451 kts 150°
2026-04-26 23:16 22.88108 75.64063 36840 ft 452 kts 150°
2026-04-26 23:16 22.82990 75.68020 36839 ft 452 kts 150°
2026-04-26 23:17 22.77908 75.71947 36846 ft 452 kts 150°
2026-04-26 23:17 22.72750 75.75924 36848 ft 452 kts 151°
2026-04-26 23:18 22.67316 75.79126 36849 ft 440 kts 165°
2026-04-26 23:18 22.61574 75.81339 36851 ft 436 kts 169°
2026-04-26 23:19 22.55768 75.83183 36850 ft 434 kts 172°
2026-04-26 23:19 22.49983 75.84852 36842 ft 434 kts 172°
2026-04-26 23:20 22.44189 75.86705 36836 ft 434 kts 170°
2026-04-26 23:20 22.38417 75.88676 36841 ft 435 kts 170°
2026-04-26 23:21 22.32654 75.90655 36840 ft 435 kts 170°
2026-04-26 23:21 22.26886 75.92632 36837 ft 435 kts 170°
2026-04-26 23:22 22.21101 75.94697 36827 ft 440 kts 165°
2026-04-26 23:22 22.15443 75.97000 36832 ft 439 kts 166°
2026-04-26 23:23 22.09744 75.99310 36826 ft 436 kts 169°
2026-04-26 23:23 22.04040 76.01733 36822 ft 442 kts 163°
2026-04-26 23:24 21.98490 76.04498 36820 ft 442 kts 163°
2026-04-26 23:24 21.92901 76.07277 36810 ft 442 kts 163°
2026-04-26 23:25 21.87278 76.10065 36813 ft 442 kts 163°
2026-04-26 23:25 21.81723 76.12815 36804 ft 442 kts 163°
2026-04-26 23:26 21.76132 76.15580 36801 ft 442 kts 163°
2026-04-26 23:26 21.70544 76.18342 36801 ft 442 kts 163°
2026-04-26 23:27 21.64954 76.21103 36792 ft 442 kts 163°
2026-04-26 23:27 21.59329 76.23879 36791 ft 442 kts 163°
2026-04-26 23:28 21.53784 76.26615 36790 ft 441 kts 163°
2026-04-26 23:28 21.48204 76.29362 36783 ft 441 kts 163°
2026-04-26 23:29 21.42622 76.32110 36783 ft 442 kts 163°
2026-04-26 23:29 21.37031 76.34858 36780 ft 442 kts 163°
2026-04-26 23:30 21.31433 76.37607 36780 ft 442 kts 163°
2026-04-26 23:30 21.25853 76.40347 36780 ft 441 kts 163°
2026-04-26 23:31 21.20270 76.43083 36781 ft 441 kts 163°
2026-04-26 23:31 21.14698 76.45840 36770 ft 443 kts 161°
2026-04-26 23:32 21.09219 76.48916 36770 ft 443 kts 162°
2026-04-26 23:32 21.03665 76.51743 36779 ft 441 kts 163°
2026-04-26 23:33 20.98093 76.54466 36782 ft 440 kts 164°
2026-04-26 23:33 20.92523 76.57181 36781 ft 440 kts 164°
2026-04-26 23:34 20.86951 76.59897 36778 ft 440 kts 164°
2026-04-26 23:34 20.81381 76.62609 36770 ft 440 kts 164°
2026-04-26 23:35 20.75791 76.65232 36770 ft 436 kts 167°
2026-04-26 23:35 20.70133 76.67619 36777 ft 439 kts 165°
2026-04-26 23:36 20.64553 76.70255 36780 ft 439 kts 164°
2026-04-26 23:36 20.58991 76.72955 36778 ft 439 kts 164°
2026-04-26 23:37 20.53430 76.75653 36779 ft 439 kts 164°
2026-04-26 23:37 20.47868 76.78347 36779 ft 439 kts 164°
2026-04-26 23:38 20.42316 76.81034 36778 ft 438 kts 164°
2026-04-26 23:38 20.36765 76.83716 36779 ft 438 kts 164°
2026-04-26 23:39 20.31187 76.86318 36779 ft 437 kts 165°
2026-04-26 23:39 20.25610 76.88889 36785 ft 437 kts 165°
2026-04-26 23:40 20.20019 76.91475 36790 ft 438 kts 165°
2026-04-26 23:40 20.14422 76.94064 36791 ft 438 kts 165°
2026-04-26 23:41 20.08834 76.96646 36785 ft 438 kts 165°
2026-04-26 23:41 20.03234 76.99231 36772 ft 438 kts 165°
2026-04-26 23:42 19.97642 77.01810 36770 ft 438 kts 165°
2026-04-26 23:42 19.89288 77.05658 36770 ft 436 kts 165°
2026-04-26 23:43 19.83719 77.08220 36777 ft 437 kts 165°
2026-04-26 23:43 19.78139 77.10783 36791 ft 437 kts 165°
2026-04-26 23:44 19.72553 77.13349 36798 ft 437 kts 165°
2026-04-26 23:44 19.66970 77.15911 36800 ft 437 kts 165°
2026-04-26 23:45 19.62330 77.18039 36800 ft 437 kts 165°
2026-04-26 23:45 19.55836 77.21012 36801 ft 437 kts 165°
2026-04-26 23:46 19.50248 77.23568 36810 ft 437 kts 165°
2026-04-26 23:46 19.44665 77.26122 36810 ft 437 kts 165°
2026-04-26 23:47 19.39074 77.28672 36812 ft 437 kts 165°
2026-04-26 23:47 19.33487 77.31221 36814 ft 437 kts 165°
2026-04-26 23:48 19.27897 77.33769 36821 ft 437 kts 165°
2026-04-26 23:48 19.22308 77.36316 36816 ft 437 kts 165°
2026-04-26 23:49 19.17699 77.38713 36824 ft 441 kts 161°
2026-04-26 23:49 19.12101 77.41143 36833 ft 433 kts 167°
2026-04-26 23:50 19.06483 77.43520 36827 ft 436 kts 165°
2026-04-26 23:50 19.00899 77.46036 36836 ft 436 kts 165°
2026-04-26 23:51 18.95401 77.48819 36835 ft 439 kts 161°
2026-04-26 23:51 18.89951 77.51746 36837 ft 439 kts 161°
2026-04-26 23:52 18.84505 77.54666 36846 ft 439 kts 161°
2026-04-26 23:52 18.79056 77.57581 36847 ft 439 kts 161°
2026-04-26 23:53 18.73603 77.60498 36847 ft 439 kts 161°
2026-04-26 23:53 18.68190 77.63392 36857 ft 439 kts 161°
2026-04-26 23:54 18.62705 77.66320 36859 ft 439 kts 161°
2026-04-26 23:54 18.57269 77.69223 36861 ft 438 kts 161°
2026-04-26 23:55 18.51833 77.72123 36870 ft 438 kts 161°
2026-04-26 23:55 18.46440 77.74999 36870 ft 437 kts 161°
2026-04-26 23:56 18.41006 77.77894 36871 ft 437 kts 161°
2026-04-26 23:56 18.35577 77.80784 36878 ft 437 kts 161°
2026-04-26 23:57 18.30145 77.83675 36879 ft 437 kts 161°
2026-04-26 23:57 18.24721 77.86559 36881 ft 437 kts 161°
2026-04-26 23:58 18.19290 77.89445 36884 ft 437 kts 161°
2026-04-26 23:58 18.13858 77.92329 36890 ft 436 kts 160°
2026-04-26 23:59 18.08437 77.95205 36891 ft 437 kts 160°
2026-04-26 23:59 18.03017 77.98080 36891 ft 437 kts 161°
2026-04-27 00:00 17.97590 78.00955 36891 ft 437 kts 161°
2026-04-27 00:00 17.92169 78.03826 36889 ft 436 kts 161°
2026-04-27 00:01 17.86744 78.06696 36904 ft 437 kts 161°
2026-04-27 00:01 17.81326 78.09562 36898 ft 437 kts 161°
2026-04-27 00:02 17.75900 78.12432 36902 ft 436 kts 161°
2026-04-27 00:02 17.70472 78.15298 36899 ft 437 kts 161°
2026-04-27 00:03 17.65049 78.18160 36897 ft 436 kts 160°
2026-04-27 00:03 17.59622 78.21024 36899 ft 437 kts 160°
2026-04-27 00:04 17.54316 78.24212 36901 ft 439 kts 158°
2026-04-27 00:04 17.48939 78.27199 36906 ft 435 kts 162°
2026-04-27 00:05 17.43406 78.29718 36897 ft 435 kts 163°
2026-04-27 00:05 17.37930 78.32456 36907 ft 437 kts 161°
2026-04-27 00:06 17.32487 78.35312 36893 ft 438 kts 160°
2026-04-27 00:06 17.27049 78.38174 36885 ft 437 kts 160°
2026-04-27 00:07 17.21482 78.40474 36882 ft 423 kts 174°
2026-04-27 00:07 17.15695 78.41265 36883 ft 420 kts 178°
2026-04-27 00:08 17.09921 78.42337 36880 ft 421 kts 177°
2026-04-27 00:08 17.04136 78.43161 36880 ft 419 kts 180°
2026-04-27 00:09 16.98341 78.43799 36882 ft 419 kts 181°
2026-04-27 00:09 16.92540 78.44413 36881 ft 419 kts 181°
2026-04-27 00:10 16.86738 78.45029 36881 ft 419 kts 181°
2026-04-27 00:10 16.80935 78.45644 36874 ft 419 kts 180°
2026-04-27 00:11 16.75142 78.46260 36872 ft 419 kts 180°
2026-04-27 00:11 16.69344 78.46875 36872 ft 419 kts 180°
2026-04-27 00:12 16.63542 78.47491 36871 ft 419 kts 180°
2026-04-27 00:12 16.57751 78.48106 36872 ft 419 kts 180°
2026-04-27 00:13 16.51949 78.48722 36871 ft 419 kts 180°
2026-04-27 00:13 16.46147 78.49337 36871 ft 418 kts 180°
2026-04-27 00:14 16.40369 78.49951 36870 ft 418 kts 180°
2026-04-27 00:14 16.34577 78.50565 36875 ft 418 kts 180°
2026-04-27 00:15 16.28781 78.51180 36886 ft 419 kts 180°
2026-04-27 00:15 16.22987 78.51790 36887 ft 418 kts 181°
2026-04-27 00:16 16.17277 78.51511 36894 ft 408 kts 194°
2026-04-27 00:16 16.11763 78.50313 36886 ft 403 kts 201°
2026-04-27 00:17 16.06289 78.48985 36882 ft 406 kts 196°
2026-04-27 00:17 16.00714 78.48006 36880 ft 407 kts 194°
2026-04-27 00:18 15.95119 78.47104 36880 ft 407 kts 194°
2026-04-27 00:18 15.89528 78.46210 36880 ft 407 kts 194°
2026-04-27 00:19 15.83934 78.45315 36880 ft 407 kts 194°
2026-04-27 00:19 15.78342 78.44420 36881 ft 406 kts 194°
2026-04-27 00:20 15.72751 78.43527 36881 ft 407 kts 194°
2026-04-27 00:20 15.67156 78.42633 36882 ft 407 kts 194°
2026-04-27 00:21 15.61550 78.41739 36898 ft 408 kts 194°
2026-04-27 00:21 15.55914 78.40840 36914 ft 411 kts 194°
2026-04-27 00:22 15.50263 78.39940 36917 ft 411 kts 194°
2026-04-27 00:22 15.44600 78.39039 36903 ft 412 kts 194°
2026-04-27 00:23 15.38940 78.38138 36913 ft 412 kts 194°
2026-04-27 00:23 15.33267 78.37235 36913 ft 412 kts 194°
2026-04-27 00:24 15.27593 78.36333 36898 ft 413 kts 194°
2026-04-27 00:24 15.21920 78.35431 36905 ft 413 kts 193°
2026-04-27 00:25 15.16232 78.34522 36898 ft 413 kts 194°
2026-04-27 00:25 15.10542 78.33611 36901 ft 414 kts 193°
2026-04-27 00:26 15.04848 78.32701 36907 ft 414 kts 193°
2026-04-27 00:26 14.99144 78.31790 36910 ft 415 kts 193°
2026-04-27 00:27 14.93444 78.30880 36906 ft 414 kts 193°
2026-04-27 00:27 14.87735 78.29969 36898 ft 415 kts 193°
2026-04-27 00:28 14.82018 78.29062 36901 ft 416 kts 193°
2026-04-27 00:28 14.77273 78.28300 36905 ft 415 kts 193°
2026-04-27 00:29 14.71562 78.27385 36914 ft 416 kts 193°
2026-04-27 00:29 14.64869 78.26315 36901 ft 416 kts 193°
2026-04-27 00:30 14.60114 78.25556 36899 ft 416 kts 193°
2026-04-27 00:30 14.53421 78.24486 36912 ft 417 kts 193°
2026-04-27 00:31 14.48659 78.23726 36901 ft 417 kts 193°
2026-04-27 00:31 14.42926 78.22810 36917 ft 417 kts 193°
2026-04-27 00:32 14.37206 78.21898 36922 ft 416 kts 193°
2026-04-27 00:32 14.31484 78.20987 36921 ft 416 kts 193°
2026-04-27 00:33 14.25760 78.20074 36919 ft 416 kts 193°
2026-04-27 00:33 14.20023 78.19160 36923 ft 417 kts 193°
2026-04-27 00:34 14.14464 78.17687 36931 ft 410 kts 207°
2026-04-27 00:34 14.09373 78.15058 36930 ft 409 kts 210°
2026-04-27 00:35 14.04313 78.12369 36934 ft 409 kts 210°
2026-04-27 00:35 13.99250 78.09703 36940 ft 409 kts 210°
2026-04-27 00:36 13.94176 78.07038 36944 ft 409 kts 210°
2026-04-27 00:36 13.89116 78.04382 36833 ft 406 kts 210°
2026-04-27 00:37 13.86596 78.03060 35692 ft 409 kts 210°
2026-04-27 00:37 13.84038 78.01718 34250 ft 416 kts 210°
2026-04-27 00:37 13.81443 78.00356 32786 ft 421 kts 210°
2026-04-27 00:37 13.78829 77.98985 31367 ft 423 kts 210°
2026-04-27 00:38 13.76202 77.97609 29946 ft 424 kts 209°
2026-04-27 00:38 13.73574 77.96231 28504 ft 423 kts 209°
2026-04-27 00:38 13.70951 77.94858 27091 ft 422 kts 208°
2026-04-27 00:38 13.68340 77.93490 25693 ft 420 kts 208°
2026-04-27 00:39 13.65745 77.92131 24329 ft 417 kts 208°
2026-04-27 00:39 13.63171 77.90784 22948 ft 414 kts 208°
2026-04-27 00:39 13.60609 77.89443 21549 ft 412 kts 207°
2026-04-27 00:39 13.58068 77.88112 20201 ft 409 kts 207°
2026-04-27 00:40 13.55553 77.86796 18835 ft 405 kts 207°
2026-04-27 00:40 13.53048 77.85484 17447 ft 402 kts 206°
2026-04-27 00:40 13.50551 77.84239 16173 ft 396 kts 201°
2026-04-27 00:40 13.47926 77.83649 15430 ft 378 kts 181°
2026-04-27 00:41 13.45401 77.83936 14868 ft 356 kts 162°
2026-04-27 00:41 13.43259 77.85020 14321 ft 335 kts 140°
2026-04-27 00:41 13.41768 77.86746 13693 ft 317 kts 116°
2026-04-27 00:41 13.40820 77.88760 12877 ft 312 kts 113°
2026-04-27 00:42 13.39697 77.90669 11998 ft 315 kts 124°
2026-04-27 00:42 13.38200 77.92317 11181 ft 316 kts 134°
2026-04-27 00:42 13.36504 77.93717 10462 ft 311 kts 141°
2026-04-27 00:42 13.34706 77.94905 9855 ft 302 kts 147°
2026-04-27 00:43 13.32899 77.95881 9540 ft 285 kts 152°
2026-04-27 00:43 13.31147 77.96664 9239 ft 266 kts 156°
2026-04-27 00:43 13.29411 77.97305 8540 ft 265 kts 160°
2026-04-27 00:43 13.27643 77.97823 7842 ft 264 kts 164°
2026-04-27 00:44 13.25889 77.98209 7509 ft 248 kts 168°
2026-04-27 00:44 13.24260 77.98463 7447 ft 231 kts 171°
2026-04-27 00:44 13.22687 77.98476 7315 ft 232 kts 194°
2026-04-27 00:44 13.21321 77.97599 7124 ft 234 kts 230°
2026-04-27 00:45 13.20441 77.96231 6899 ft 223 kts 236°
2026-04-27 00:45 13.19678 77.94921 6718 ft 214 kts 242°
2026-04-27 00:45 13.19148 77.93478 6543 ft 213 kts 254°
2026-04-27 00:45 13.18892 77.92007 6448 ft 213 kts 263°
2026-04-27 00:46 13.18800 77.90495 6301 ft 212 kts 268°
2026-04-27 00:46 13.18805 77.89006 6118 ft 200 kts 269°
2026-04-27 00:46 13.18815 77.87626 5872 ft 188 kts 269°
2026-04-27 00:46 13.18825 77.86313 5612 ft 180 kts 269°
2026-04-27 00:47 13.18835 77.85056 5349 ft 172 kts 269°
2026-04-27 00:47 13.18846 77.83898 5104 ft 158 kts 269°
2026-04-27 00:47 13.18855 77.82778 4886 ft 156 kts 269°
2026-04-27 00:47 13.18865 77.81689 4734 ft 145 kts 269°
2026-04-27 00:48 13.18873 77.80697 4536 ft 135 kts 269°
2026-04-27 00:48 13.18881 77.79753 4335 ft 131 kts 269°
2026-04-27 00:48 13.18890 77.78825 4161 ft 130 kts 270°
2026-04-27 00:48 13.18897 77.77901 3991 ft 129 kts 270°
2026-04-27 00:49 13.18905 77.76983 3825 ft 128 kts 270°
2026-04-27 00:49 13.18914 77.76068 3655 ft 128 kts 270°
2026-04-27 00:49 13.18921 77.75153 3487 ft 128 kts 269°
2026-04-27 00:49 13.18927 77.74240 3322 ft 128 kts 270°
2026-04-27 00:50 13.18937 77.73322 3162 ft 128 kts 270°
2026-04-27 00:50 13.18950 77.71594 3016 ft 90 kts 270°
2026-04-27 00:50 13.18952 77.71154 3016 ft 37 kts 270°
2026-04-27 00:51 13.18954 77.70937 3018 ft 30 kts 271°
2026-04-27 00:51 13.18960 77.70856 3017 ft 2 kts 279°
2026-04-27 00:51 13.19003 77.70776 3017 ft 20 kts 302°
2026-04-27 00:51 13.19066 77.70666 3017 ft 13 kts 304°
2026-04-27 00:52 13.19131 77.70696 3017 ft 16 kts 88°
2026-04-27 00:52 13.19128 77.70821 3017 ft 19 kts 91°
2026-04-27 00:52 13.19127 77.70972 3017 ft 22 kts 90°
2026-04-27 00:52 13.19126 77.71140 3017 ft 25 kts 90°
2026-04-27 00:53 13.19125 77.71330 3017 ft 28 kts 90°
2026-04-27 00:53 13.19123 77.71539 3017 ft 30 kts 90°
2026-04-27 00:53 13.19120 77.71763 3017 ft 32 kts 91°
2026-04-27 00:53 13.19117 77.72002 3016 ft 35 kts 90°
2026-04-27 00:54 13.19115 77.72248 3017 ft 27 kts 90°
2026-04-27 00:54 13.19114 77.72414 3017 ft 23 kts 90°
2026-04-27 00:54 13.19249 77.72437 3017 ft 25 kts 359°
2026-04-27 00:54 13.19428 77.72440 3017 ft 27 kts
2026-04-27 00:55 13.19626 77.72441 3017 ft 30 kts 360°
2026-04-27 00:55 13.19841 77.72442 3017 ft 32 kts
2026-04-27 00:55 13.20071 77.72446 3017 ft 34 kts
2026-04-27 00:55 13.20258 77.72449 3017 ft 25 kts
2026-04-27 00:56 13.20395 77.72358 3017 ft 20 kts 308°
2026-04-27 00:56 13.20435 77.72222 3017 ft 22 kts 270°
2026-04-27 00:56 13.20435 77.72055 3017 ft 25 kts 270°
2026-04-27 00:56 13.20437 77.71864 3017 ft 28 kts 271°
2026-04-27 00:57 13.20440 77.71658 3017 ft 30 kts 270°
2026-04-27 00:57 13.20442 77.71438 3017 ft 30 kts 270°
2026-04-27 00:57 13.20442 77.71342 3017 ft 11 kts 270°
2026-04-27 00:57 13.20401 77.71277 3017 ft 15 kts 185°
2026-04-27 00:58 13.20287 77.71280 3017 ft 18 kts 153°
2026-04-27 00:58 13.20259 77.71391 3017 ft 5 kts 90°
2026-04-27 00:58 13.20264 77.71440 3017 ft 9 kts 42°
2026-04-27 00:58 13.20327 77.71447 3017 ft 7 kts
2026-04-27 00:59 13.20340 77.71447 3017 ft 0 kts